Observation data for Amarillo 9 North Northeast on 12/09/2018      Previous  Date       Current Mesonet Observations  Soil Data  Daily Summary Page  Observations in Plain Language
KAM2 090600Z 18001KT M08/M09 A3031 RMK A01 T10751094  RH  086%=      5-min Rain = 0
KAM2 090601Z 18002KT M08/M10 A3031 RMK A01 T10751095  RH  086%=      5-min Rain = 0
KAM2 090602Z 17002KT M08/M10 A3031 RMK A01 T10761096  RH  086%=      5-min Rain = 0
KAM2 090603Z 17002KT M08/M10 A3031 RMK A01 T10771097  RH  086%=      5-min Rain = 0
KAM2 090604Z 17001KT M08/M10 A3031 RMK A01 T10781097  RH  086%=      5-min Rain = 0
KAM2 090605Z 16002KT M08/M10 A3031 RMK A01 T10781097  RH  086%=      5-min Rain = 0
KAM2 090606Z 17002KT M08/M10 A3031 RMK A01 T10781096  RH  087%=      5-min Rain = 0
KAM2 090607Z 16002KT M08/M10 A3031 RMK A01 T10781095  RH  087%=      5-min Rain = 0
KAM2 090608Z 16002KT M08/M09 A3031 RMK A01 T10771093  RH  088%=      5-min Rain = 0
KAM2 090609Z 16002KT M08/M09 A3031 RMK A01 T10761092  RH  088%=      5-min Rain = 0
KAM2 090610Z 15002KT M08/M09 A3031 RMK A01 T10751091  RH  088%=      5-min Rain = 0
KAM2 090611Z 16002KT M07/M09 A3031 RMK A01 T10741091  RH  088%=      5-min Rain = 0
KAM2 090612Z 16002KT M07/M09 A3031 RMK A01 T10741091  RH  087%=      5-min Rain = 0
KAM2 090613Z 16002KT M07/M09 A3031 RMK A01 T10731091  RH  087%=      5-min Rain = 0
KAM2 090614Z 17002KT M07/M09 A3031 RMK A01 T10731091  RH  087%=      5-min Rain = 0
KAM2 090615Z 17002KT M07/M09 A3031 RMK A01 T10741093  RH  086%=      5-min Rain = 0
KAM2 090616Z 17002KT M08/M10 A3031 RMK A01 T10761096  RH  086%=      5-min Rain = 0
KAM2 090617Z 18002KT M08/M10 A3031 RMK A01 T10771096  RH  086%=      5-min Rain = 0
KAM2 090618Z 18002KT M08/M10 A3031 RMK A01 T10781097  RH  086%=      5-min Rain = 0
KAM2 090619Z 18002KT M08/M10 A3031 RMK A01 T10801098  RH  087%=      5-min Rain = 0
KAM2 090620Z 18002KT M08/M10 A3031 RMK A01 T10801097  RH  087%=      5-min Rain = 0
KAM2 090621Z 18003KT M08/M10 A3031 RMK A01 T10801097  RH  088%=      5-min Rain = 0
KAM2 090622Z 17002KT M08/M10 A3031 RMK A01 T10801096  RH  088%=      5-min Rain = 0
KAM2 090623Z 16002KT M08/M10 A3031 RMK A01 T10801096  RH  088%=      5-min Rain = 0
KAM2 090624Z 15002KT M08/M10 A3031 RMK A01 T10791096  RH  088%=      5-min Rain = 0
KAM2 090625Z 14002KT M08/M10 A3031 RMK A01 T10781095  RH  088%=      5-min Rain = 0
KAM2 090626Z 14001KT M08/M10 A3031 RMK A01 T10781095  RH  088%=      5-min Rain = 0
KAM2 090627Z 14001KT M08/M10 A3031 RMK A01 T10781095  RH  087%=      5-min Rain = 0
KAM2 090628Z 14001KT M08/M10 A3031 RMK A01 T10771095  RH  087%=      5-min Rain = 0
KAM2 090629Z 14001KT M08/M10 A3031 RMK A01 T10761095  RH  087%=      5-min Rain = 0
KAM2 090630Z 15001KT M08/M09 A3031 RMK A01 T10761094  RH  087%=      5-min Rain = 0
KAM2 090631Z 15001KT M08/M09 A3031 RMK A01 T10751094  RH  086%=      5-min Rain = 0
KAM2 090632Z 15001KT M08/M09 A3031 RMK A01 T10751094  RH  086%=      5-min Rain = 0
KAM2 090633Z 15001KT M08/M09 A3031 RMK A01 T10751094  RH  086%=      5-min Rain = 0
KAM2 090634Z 15001KT M08/M10 A3031 RMK A01 T10761095  RH  086%=      5-min Rain = 0
KAM2 090635Z 15001KT M08/M10 A3031 RMK A01 T10761095  RH  086%=      5-min Rain = 0
KAM2 090636Z 15000KT M08/M10 A3031 RMK A01 T10761095  RH  086%=      5-min Rain = 0
KAM2 090637Z 00000KT M08/M09 A3031 RMK A01 T10761094  RH  087%=      5-min Rain = 0
KAM2 090638Z 00000KT M08/M09 A3031 RMK A01 T10751093  RH  087%=      5-min Rain = 0
KAM2 090639Z 00000KT M08/M09 A3031 RMK A01 T10751093  RH  087%=      5-min Rain = 0
KAM2 090640Z 00000KT M07/M09 A3031 RMK A01 T10741093  RH  087%=      5-min Rain = 0
KAM2 090641Z 00000KT M07/M09 A3031 RMK A01 T10741093  RH  087%=      5-min Rain = 0
KAM2 090642Z 00000KT M07/M09 A3031 RMK A01 T10741092  RH  086%=      5-min Rain = 0
KAM2 090643Z 00000KT M07/M09 A3031 RMK A01 T10731092  RH  086%=      5-min Rain = 0
KAM2 090644Z 00000KT M07/M09 A3031 RMK A01 T10731092  RH  086%=      5-min Rain = 0
KAM2 090645Z 00000KT M07/M09 A3031 RMK A01 T10731093  RH  086%=      5-min Rain = 0
KAM2 090646Z 00000KT M07/M09 A3031 RMK A01 T10731093  RH  085%=      5-min Rain = 0
KAM2 090647Z 00000KT M07/M09 A3031 RMK A01 T10731093  RH  085%=      5-min Rain = 0
KAM2 090648Z 00000KT M07/M09 A3031 RMK A01 T10731093  RH  085%=      5-min Rain = 0
KAM2 090649Z 00000KT M07/M09 A3031 RMK A01 T10731094  RH  085%=      5-min Rain = 0
KAM2 090650Z 00000KT M08/M10 A3031 RMK A01 T10751097  RH  084%=      5-min Rain = 0
KAM2 090651Z 00000KT M08/M10 A3031 RMK A01 T10761098  RH  085%=      5-min Rain = 0
KAM2 090652Z 00000KT M08/M10 A3031 RMK A01 T10781098  RH  085%=      5-min Rain = 0
KAM2 090653Z 00000KT M08/M10 A3031 RMK A01 T10791099  RH  085%=      5-min Rain = 0
KAM2 090654Z 00000KT M08/M10 A3031 RMK A01 T10801099  RH  086%=      5-min Rain = 0
KAM2 090655Z 00000KT M08/M10 A3031 RMK A01 T10801099  RH  087%=      5-min Rain = 0
KAM2 090656Z 00000KT M08/M10 A3031 RMK A01 T10801098  RH  087%=      5-min Rain = 0
KAM2 090657Z 00000KT M08/M10 A3031 RMK A01 T10811098  RH  088%=      5-min Rain = 0
KAM2 090658Z 00000KT M08/M10 A3031 RMK A01 T10811098  RH  088%=      5-min Rain = 0
KAM2 090659Z 00000KT M08/M10 A3031 RMK A01 T10811098  RH  088%=      5-min Rain = 0
KAM2 090700Z 16000KT M08/M10 A3031 RMK A01 T10821098  RH  088%=      5-min Rain = 0
KAM2 090701Z 17001KT M08/M10 A3031 RMK A01 T10821098  RH  088%=      5-min Rain = 0
KAM2 090702Z 17001KT M08/M10 A3031 RMK A01 T10821098  RH  088%=      5-min Rain = 0
KAM2 090703Z 17001KT M08/M10 A3031 RMK A01 T10811097  RH  088%=      5-min Rain = 0
KAM2 090704Z 17001KT M08/M10 A3031 RMK A01 T10811097  RH  088%=      5-min Rain = 0
KAM2 090705Z 17001KT M08/M10 A3031 RMK A01 T10811096  RH  088%=      5-min Rain = 0
KAM2 090706Z 17001KT M08/M10 A3031 RMK A01 T10811097  RH  088%=      5-min Rain = 0
KAM2 090707Z 17001KT M08/M10 A3031 RMK A01 T10811097  RH  088%=      5-min Rain = 0
KAM2 090708Z 16001KT M08/M10 A3031 RMK A01 T10811097  RH  088%=      5-min Rain = 0
KAM2 090709Z 16001KT M08/M10 A3031 RMK A01 T10821098  RH  088%=      5-min Rain = 0
KAM2 090710Z 16002KT M08/M10 A3031 RMK A01 T10821098  RH  089%=      5-min Rain = 0
KAM2 090711Z 16002KT M08/M10 A3031 RMK A01 T10821097  RH  089%=      5-min Rain = 0
KAM2 090712Z 16002KT M08/M10 A3031 RMK A01 T10821097  RH  089%=      5-min Rain = 0
KAM2 090713Z 16003KT M08/M10 A3031 RMK A01 T10821097  RH  089%=      5-min Rain = 0
KAM2 090714Z 16003KT M08/M10 A3031 RMK A01 T10821097  RH  089%=      5-min Rain = 0
KAM2 090715Z 16003KT M08/M10 A3031 RMK A01 T10821098  RH  089%=      5-min Rain = 0
KAM2 090716Z 16003KT M08/M10 A303 RMK A01 T10831099  RH  088%=      5-min Rain = 0
KAM2 090717Z 16004KT M08/M10 A303 RMK A01 T10831100  RH  088%=      5-min Rain = 0
KAM2 090718Z 16003KT M09/M10 A303 RMK A01 T10851101  RH  088%=      5-min Rain = 0
KAM2 090719Z 17004KT M09/M10 A303 RMK A01 T10851101  RH  088%=      5-min Rain = 0
KAM2 090720Z 17004KT M09/M10 A303 RMK A01 T10861101  RH  089%=      5-min Rain = 0
KAM2 090721Z 17004KT M09/M10 A303 RMK A01 T10861102  RH  089%=      5-min Rain = 0
KAM2 090722Z 18004KT M09/M10 A303 RMK A01 T10871102  RH  089%=      5-min Rain = 0
KAM2 090723Z 18004KT M09/M10 A303 RMK A01 T10871101  RH  089%=      5-min Rain = 0
KAM2 090724Z 18004KT M09/M10 A303 RMK A01 T10871101  RH  090%=      5-min Rain = 0
KAM2 090725Z 18003KT M09/M10 A303 RMK A01 T10861100  RH  090%=      5-min Rain = 0
KAM2 090726Z 17003KT M09/M10 A303 RMK A01 T10861099  RH  090%=      5-min Rain = 0
KAM2 090727Z 17003KT M08/M10 A303 RMK A01 T10841098  RH  090%=      5-min Rain = 0
KAM2 090728Z 17003KT M08/M10 A303 RMK A01 T10841098  RH  090%=      5-min Rain = 0
KAM2 090729Z 17002KT M08/M10 A303 RMK A01 T10841099  RH  089%=      5-min Rain = 0
KAM2 090730Z 17002KT M08/M10 A303 RMK A01 T10831098  RH  089%=      5-min Rain = 0
KAM2 090731Z 18002KT M08/M10 A303 RMK A01 T10831098  RH  089%=      5-min Rain = 0
KAM2 090732Z 20002KT M08/M10 A303 RMK A01 T10831098  RH  089%=      5-min Rain = 0
KAM2 090733Z 21001KT M08/M10 A303 RMK A01 T10821098  RH  089%=      5-min Rain = 0
KAM2 090734Z 20001KT M08/M10 A303 RMK A01 T10831099  RH  088%=      5-min Rain = 0
KAM2 090735Z 19001KT M08/M10 A303 RMK A01 T10831099  RH  088%=      5-min Rain = 0
KAM2 090736Z 19001KT M08/M10 A303 RMK A01 T10821098  RH  089%=      5-min Rain = 0
KAM2 090737Z 19000KT M08/M10 A303 RMK A01 T10811095  RH  090%=      5-min Rain = 0
KAM2 090738Z 00000KT M08/M09 A303 RMK A01 T10801094  RH  090%=      5-min Rain = 0
KAM2 090739Z 24000KT M08/M09 A303 RMK A01 T10791094  RH  089%=      5-min Rain = 0
KAM2 090740Z 27000KT M08/M10 A303 RMK A01 T10791096  RH  088%=      5-min Rain = 0
KAM2 090741Z 28000KT M08/M10 A303 RMK A01 T10811099  RH  087%=      5-min Rain = 0
KAM2 090742Z 30000KT M08/M10 A303 RMK A01 T10821099  RH  088%=      5-min Rain = 0
KAM2 090743Z 33001KT M08/M10 A303 RMK A01 T10821097  RH  089%=      5-min Rain = 0
KAM2 090744Z 32001KT M08/M10 A303 RMK A01 T10821097  RH  089%=      5-min Rain = 0
KAM2 090745Z 32002KT M08/M10 A303 RMK A01 T10811096  RH  089%=      5-min Rain = 0
KAM2 090746Z 32001KT M08/M10 A303 RMK A01 T10811096  RH  089%=      5-min Rain = 0
KAM2 090747Z 31001KT M08/M10 A303 RMK A01 T10801095  RH  089%=      5-min Rain = 0
KAM2 090748Z 31001KT M08/M09 A303 RMK A01 T10801094  RH  089%=      5-min Rain = 0
KAM2 090749Z 31001KT M08/M10 A303 RMK A01 T10801095  RH  089%=      5-min Rain = 0
KAM2 090750Z 31001KT M08/M10 A303 RMK A01 T10801096  RH  088%=      5-min Rain = 0
KAM2 090751Z 31001KT M08/M10 A303 RMK A01 T10801095  RH  088%=      5-min Rain = 0
KAM2 090752Z 31001KT M08/M10 A3031 RMK A01 T10801096  RH  088%=      5-min Rain = 0
KAM2 090753Z 31000KT M08/M10 A3031 RMK A01 T10801097  RH  088%=      5-min Rain = 0
KAM2 090754Z 00000KT M08/M10 A3031 RMK A01 T10801097  RH  088%=      5-min Rain = 0
KAM2 090755Z 00000KT M08/M10 A3031 RMK A01 T10811096  RH  089%=      5-min Rain = 0
KAM2 090756Z 00000KT M08/M10 A3031 RMK A01 T10811096  RH  089%=      5-min Rain = 0
KAM2 090757Z 00000KT M08/M10 A3031 RMK A01 T10811096  RH  089%=      5-min Rain = 0
KAM2 090758Z 00000KT M08/M10 A3031 RMK A01 T10811096  RH  088%=      5-min Rain = 0
KAM2 090759Z 00000KT M08/M10 A3031 RMK A01 T10811097  RH  088%=      5-min Rain = 0
KAM2 090800Z 00000KT M08/M10 A3031 RMK A01 T10811097  RH  088%=      5-min Rain = 0
KAM2 090801Z 00000KT M08/M10 A3031 RMK A01 T10811097  RH  089%=      5-min Rain = 0
KAM2 090802Z 00000KT M08/M10 A3031 RMK A01 T10811096  RH  089%=      5-min Rain = 0
KAM2 090803Z 00000KT M08/M10 A3031 RMK A01 T10811098  RH  088%=      5-min Rain = 0
KAM2 090804Z 00000KT M08/M10 A3031 RMK A01 T10821100  RH  087%=      5-min Rain = 0
KAM2 090805Z 13001KT M08/M10 A3031 RMK A01 T10841101  RH  088%=      5-min Rain = 0
KAM2 090806Z 14001KT M09/M10 A3031 RMK A01 T10851101  RH  088%=      5-min Rain = 0
KAM2 090807Z 15001KT M09/M10 A3031 RMK A01 T10851100  RH  089%=      5-min Rain = 0
KAM2 090808Z 15001KT M09/M10 A3031 RMK A01 T10861100  RH  089%=      5-min Rain = 0
KAM2 090809Z 16002KT M09/M10 A3031 RMK A01 T10861101  RH  089%=      5-min Rain = 0
KAM2 090810Z 17002KT M09/M10 A3031 RMK A01 T10871102  RH  089%=      5-min Rain = 0
KAM2 090811Z 17002KT M09/M10 A3031 RMK A01 T10881104  RH  089%=      5-min Rain = 0
KAM2 090812Z 16002KT M09/M11 A3031 RMK A01 T10901105  RH  089%=      5-min Rain = 0
KAM2 090813Z 16002KT M09/M11 A3031 RMK A01 T10901105  RH  089%=      5-min Rain = 0
KAM2 090814Z 16001KT M09/M11 A3031 RMK A01 T10911105  RH  089%=      5-min Rain = 0
KAM2 090815Z 16002KT M09/M11 A3031 RMK A01 T10911105  RH  090%=      5-min Rain = 0
KAM2 090816Z 17002KT M09/M10 A3031 RMK A01 T10911104  RH  090%=      5-min Rain = 0
KAM2 090817Z 18002KT M09/M10 A3031 RMK A01 T10901104  RH  090%=      5-min Rain = 0
KAM2 090818Z 18002KT M09/M10 A3031 RMK A01 T10901104  RH  089%=      5-min Rain = 0
KAM2 090819Z 18002KT M09/M11 A3031 RMK A01 T10901105  RH  089%=      5-min Rain = 0
KAM2 090820Z 17002KT M09/M11 A3031 RMK A01 T10901105  RH  089%=      5-min Rain = 0
KAM2 090821Z 17002KT M09/M10 A3031 RMK A01 T10891103  RH  089%=      5-min Rain = 0
KAM2 090822Z 17002KT M09/M10 A3031 RMK A01 T10881102  RH  089%=      5-min Rain = 0
KAM2 090823Z 17002KT M09/M10 A3031 RMK A01 T10881103  RH  089%=      5-min Rain = 0
KAM2 090824Z 17002KT M09/M10 A3031 RMK A01 T10871102  RH  089%=      5-min Rain = 0
KAM2 090825Z 16002KT M09/M10 A3031 RMK A01 T10871101  RH  089%=      5-min Rain = 0
KAM2 090826Z 16002KT M09/M10 A3031 RMK A01 T10861101  RH  089%=      5-min Rain = 0
KAM2 090827Z 16002KT M09/M10 A3031 RMK A01 T10851099  RH  089%=      5-min Rain = 0
KAM2 090828Z 17002KT M08/M10 A3031 RMK A01 T10841098  RH  089%=      5-min Rain = 0
KAM2 090829Z 17002KT M08/M10 A3031 RMK A01 T10831099  RH  089%=      5-min Rain = 0
KAM2 090830Z 18003KT M08/M10 A3031 RMK A01 T10831100  RH  088%=      5-min Rain = 0
KAM2 090831Z 18003KT M08/M10 A303 RMK A01 T10831100  RH  088%=      5-min Rain = 0
KAM2 090832Z 18003KT M09/M10 A3031 RMK A01 T10851101  RH  088%=      5-min Rain = 0
KAM2 090833Z 18003KT M09/M10 A3031 RMK A01 T10851102  RH  088%=      5-min Rain = 0
KAM2 090834Z 18003KT M09/M10 A3031 RMK A01 T10861103  RH  088%=      5-min Rain = 0
KAM2 090835Z 19003KT M09/M10 A3031 RMK A01 T10871104  RH  088%=      5-min Rain = 0
KAM2 090836Z 19004KT M09/M10 A3031 RMK A01 T10881104  RH  088%=      5-min Rain = 0
KAM2 090837Z 19004KT M09/M10 A3031 RMK A01 T10881104  RH  088%=      5-min Rain = 0
KAM2 090838Z 19004KT M09/M10 A3031 RMK A01 T10881104  RH  088%=      5-min Rain = 0
KAM2 090839Z 19004KT M09/M10 A3031 RMK A01 T10891104  RH  088%=      5-min Rain = 0
KAM2 090840Z 19004KT M09/M10 A3031 RMK A01 T10891104  RH  089%=      5-min Rain = 0
KAM2 090841Z 18004KT M09/M10 A3031 RMK A01 T10881103  RH  089%=      5-min Rain = 0
KAM2 090842Z 18004KT M09/M10 A3031 RMK A01 T10881102  RH  089%=      5-min Rain = 0
KAM2 090843Z 18004KT M09/M10 A3031 RMK A01 T10881102  RH  089%=      5-min Rain = 0
KAM2 090844Z 18004KT M09/M10 A3031 RMK A01 T10881103  RH  089%=      5-min Rain = 0
KAM2 090845Z 18004KT M09/M10 A3031 RMK A01 T10871102  RH  089%=      5-min Rain = 0
KAM2 090846Z 18004KT M09/M10 A3031 RMK A01 T10871101  RH  089%=      5-min Rain = 0
KAM2 090847Z 18004KT M09/M10 A3031 RMK A01 T10861101  RH  089%=      5-min Rain = 0
KAM2 090848Z 19004KT M09/M10 A3031 RMK A01 T10861101  RH  089%=      5-min Rain = 0
KAM2 090849Z 19004KT M09/M10 A3031 RMK A01 T10861101  RH  089%=      5-min Rain = 0
KAM2 090850Z 19004KT M09/M10 A3031 RMK A01 T10861101  RH  089%=      5-min Rain = 0
KAM2 090851Z 19003KT M09/M10 A3031 RMK A01 T10861101  RH  089%=      5-min Rain = 0
KAM2 090852Z 18003KT M09/M10 A3031 RMK A01 T10861101  RH  089%=      5-min Rain = 0
KAM2 090853Z 17003KT M09/M10 A3031 RMK A01 T10861101  RH  089%=      5-min Rain = 0
KAM2 090854Z 18002KT M09/M10 A3031 RMK A01 T10861101  RH  089%=      5-min Rain = 0
KAM2 090855Z 18001KT M09/M10 A3031 RMK A01 T10861101  RH  089%=      5-min Rain = 0
KAM2 090856Z 18001KT M09/M10 A3031 RMK A01 T10861101  RH  089%=      5-min Rain = 0
KAM2 090857Z 18001KT M09/M10 A3031 RMK A01 T10861102  RH  089%=      5-min Rain = 0
KAM2 090858Z 18002KT M09/M10 A3031 RMK A01 T10871102  RH  089%=      5-min Rain = 0
KAM2 090859Z 17002KT M09/M10 A3031 RMK A01 T10871102  RH  089%=      5-min Rain = 0
KAM2 090900Z 17002KT M09/M10 A3031 RMK A01 T10861102  RH  089%=      5-min Rain = 0
KAM2 090901Z 17003KT M09/M10 A3031 RMK A01 T10871102  RH  088%=      5-min Rain = 0
KAM2 090902Z 17003KT M09/M10 A3031 RMK A01 T10871102  RH  088%=      5-min Rain = 0
KAM2 090903Z 18003KT M09/M10 A3031 RMK A01 T10871103  RH  088%=      5-min Rain = 0
KAM2 090904Z 17003KT M09/M10 A3031 RMK A01 T10871103  RH  088%=      5-min Rain = 0
KAM2 090905Z 18003KT M09/M10 A3031 RMK A01 T10871103  RH  088%=      5-min Rain = 0
KAM2 090906Z 17003KT M09/M10 A3031 RMK A01 T10871103  RH  088%=      5-min Rain = 0
KAM2 090907Z 18003KT M09/M10 A3031 RMK A01 T10871102  RH  089%=      5-min Rain = 0
KAM2 090908Z 18003KT M09/M10 A3031 RMK A01 T10871103  RH  088%=      5-min Rain = 0
KAM2 090909Z 18003KT M09/M10 A3031 RMK A01 T10871103  RH  088%=      5-min Rain = 0
KAM2 090910Z 18003KT M09/M10 A3031 RMK A01 T10871103  RH  088%=      5-min Rain = 0
KAM2 090911Z 18003KT M09/M10 A3031 RMK A01 T10871104  RH  088%=      5-min Rain = 0
KAM2 090912Z 18003KT M09/M10 A3031 RMK A01 T10871104  RH  088%=      5-min Rain = 0
KAM2 090913Z 18003KT M09/M10 A3031 RMK A01 T10881104  RH  088%=      5-min Rain = 0
KAM2 090914Z 18003KT M09/M10 A3031 RMK A01 T10881104  RH  088%=      5-min Rain = 0
KAM2 090915Z 18003KT M09/M10 A3031 RMK A01 T10881103  RH  089%=      5-min Rain = 0
KAM2 090916Z 19003KT M09/M10 A3031 RMK A01 T10881104  RH  089%=      5-min Rain = 0
KAM2 090917Z 19003KT M09/M10 A3031 RMK A01 T10891104  RH  088%=      5-min Rain = 0
KAM2 090918Z 19003KT M09/M11 A3031 RMK A01 T10891105  RH  089%=      5-min Rain = 0
KAM2 090919Z 19003KT M09/M11 A3031 RMK A01 T10901105  RH  089%=      5-min Rain = 0
KAM2 090920Z 18003KT M09/M11 A3031 RMK A01 T10901105  RH  089%=      5-min Rain = 0
KAM2 090921Z 18003KT M09/M11 A3031 RMK A01 T10911106  RH  089%=      5-min Rain = 0
KAM2 090922Z 18003KT M09/M11 A3031 RMK A01 T10911105  RH  089%=      5-min Rain = 0
KAM2 090923Z 18003KT M09/M11 A3031 RMK A01 T10911106  RH  089%=      5-min Rain = 0
KAM2 090924Z 18003KT M09/M11 A3031 RMK A01 T10911106  RH  089%=      5-min Rain = 0
KAM2 090925Z 18003KT M09/M11 A3031 RMK A01 T10911106  RH  089%=      5-min Rain = 0
KAM2 090926Z 18003KT M09/M11 A3031 RMK A01 T10911106  RH  089%=      5-min Rain = 0
KAM2 090927Z 18003KT M09/M11 A3031 RMK A01 T10911106  RH  089%=      5-min Rain = 0
KAM2 090928Z 18002KT M09/M11 A3031 RMK A01 T10911106  RH  089%=      5-min Rain = 0
KAM2 090929Z 18002KT M09/M11 A3031 RMK A01 T10911105  RH  089%=      5-min Rain = 0
KAM2 090930Z 18002KT M09/M10 A3031 RMK A01 T10901104  RH  090%=      5-min Rain = 0
KAM2 090931Z 18003KT M09/M10 A3031 RMK A01 T10891103  RH  090%=      5-min Rain = 0
KAM2 090932Z 19002KT M09/M10 A3031 RMK A01 T10891103  RH  089%=      5-min Rain = 0
KAM2 090933Z 18002KT M09/M10 A3031 RMK A01 T10881102  RH  089%=      5-min Rain = 0
KAM2 090934Z 18002KT M09/M10 A3031 RMK A01 T10881103  RH  089%=      5-min Rain = 0
KAM2 090935Z 17002KT M09/M10 A3031 RMK A01 T10871103  RH  089%=      5-min Rain = 0
KAM2 090936Z 16002KT M09/M10 A3031 RMK A01 T10871103  RH  089%=      5-min Rain = 0
KAM2 090937Z 17002KT M09/M10 A3031 RMK A01 T10881103  RH  089%=      5-min Rain = 0
KAM2 090938Z 17002KT M09/M10 A3031 RMK A01 T10871103  RH  089%=      5-min Rain = 0
KAM2 090939Z 18002KT M09/M10 A3031 RMK A01 T10861102  RH  089%=      5-min Rain = 0
KAM2 090940Z 18001KT M09/M10 A3031 RMK A01 T10851101  RH  089%=      5-min Rain = 0
KAM2 090941Z 17001KT M09/M10 A3031 RMK A01 T10851100  RH  089%=      5-min Rain = 0
KAM2 090942Z 18001KT M08/M10 A3031 RMK A01 T10841100  RH  088%=      5-min Rain = 0
KAM2 090943Z 18002KT M08/M10 A3031 RMK A01 T10831100  RH  088%=      5-min Rain = 0
KAM2 090944Z 19002KT M08/M10 A3031 RMK A01 T10831100  RH  088%=      5-min Rain = 0
KAM2 090945Z 19003KT M08/M10 A3031 RMK A01 T10831100  RH  087%=      5-min Rain = 0
KAM2 090946Z 19003KT M08/M10 A3031 RMK A01 T10831100  RH  087%=      5-min Rain = 0
KAM2 090947Z 18003KT M08/M10 A3031 RMK A01 T10831100  RH  087%=      5-min Rain = 0
KAM2 090948Z 18003KT M08/M10 A3031 RMK A01 T10831101  RH  087%=      5-min Rain = 0
KAM2 090949Z 18003KT M08/M10 A3031 RMK A01 T10841101  RH  087%=      5-min Rain = 0
KAM2 090950Z 18003KT M09/M10 A3031 RMK A01 T10851102  RH  088%=      5-min Rain = 0
KAM2 090951Z 18003KT M09/M10 A3031 RMK A01 T10851101  RH  088%=      5-min Rain = 0
KAM2 090952Z 19003KT M09/M10 A3031 RMK A01 T10861101  RH  088%=      5-min Rain = 0
KAM2 090953Z 19002KT M09/M10 A3031 RMK A01 T10861101  RH  089%=      5-min Rain = 0
KAM2 090954Z 19003KT M09/M10 A3031 RMK A01 T10861101  RH  089%=      5-min Rain = 0
KAM2 090955Z 19003KT M09/M10 A3031 RMK A01 T10851101  RH  089%=      5-min Rain = 0
KAM2 090956Z 20003KT M09/M10 A3031 RMK A01 T10851100  RH  089%=      5-min Rain = 0
KAM2 090957Z 19003KT M09/M10 A3031 RMK A01 T10851100  RH  089%=      5-min Rain = 0
KAM2 090958Z 19003KT M09/M10 A3031 RMK A01 T10851100  RH  089%=      5-min Rain = 0
KAM2 090959Z 18003KT M08/M10 A3031 RMK A01 T10841099  RH  089%=      5-min Rain = 0
KAM2 091000Z 19003KT M08/M10 A3032 RMK A01 T10841099  RH  089%=      5-min Rain = 0
KAM2 091001Z 19003KT M08/M10 A3032 RMK A01 T10841100  RH  089%=      5-min Rain = 0
KAM2 091002Z 19003KT M08/M10 A3032 RMK A01 T10841099  RH  089%=      5-min Rain = 0
KAM2 091003Z 19003KT M08/M10 A3031 RMK A01 T10831097  RH  089%=      5-min Rain = 0
KAM2 091004Z 19003KT M08/M10 A3031 RMK A01 T10821096  RH  089%=      5-min Rain = 0
KAM2 091005Z 18003KT M08/M10 A3031 RMK A01 T10811096  RH  089%=      5-min Rain = 0
KAM2 091006Z 18003KT M08/M10 A3031 RMK A01 T10811096  RH  089%=      5-min Rain = 0
KAM2 091007Z 18003KT M08/M10 A3031 RMK A01 T10811096  RH  089%=      5-min Rain = 0
KAM2 091008Z 19002KT M08/M10 A3031 RMK A01 T10811095  RH  089%=      5-min Rain = 0
KAM2 091009Z 18002KT M08/M09 A3031 RMK A01 T10801094  RH  090%=      5-min Rain = 0
KAM2 091010Z 17002KT M08/M09 A3031 RMK A01 T10791093  RH  090%=      5-min Rain = 0
KAM2 091011Z 17002KT M08/M09 A3031 RMK A01 T10781092  RH  090%=      5-min Rain = 0
KAM2 091012Z 17003KT M08/M09 A3031 RMK A01 T10781092  RH  090%=      5-min Rain = 0
KAM2 091013Z 17003KT M08/M09 A3031 RMK A01 T10771091  RH  090%=      5-min Rain = 0
KAM2 091014Z 18002KT M08/M09 A3031 RMK A01 T10761090  RH  090%=      5-min Rain = 0
KAM2 091015Z 18002KT M08/M09 A3031 RMK A01 T10761090  RH  090%=      5-min Rain = 0
KAM2 091016Z 19002KT M08/M09 A3031 RMK A01 T10751089  RH  089%=      5-min Rain = 0
KAM2 091017Z 20002KT M08/M09 A3031 RMK A01 T10751090  RH  089%=      5-min Rain = 0
KAM2 091018Z 20002KT M07/M09 A3031 RMK A01 T10741090  RH  089%=      5-min Rain = 0
KAM2 091019Z 19002KT M07/M09 A3031 RMK A01 T10741089  RH  088%=      5-min Rain = 0
KAM2 091020Z 19001KT M07/M09 A3031 RMK A01 T10731089  RH  089%=      5-min Rain = 0
KAM2 091021Z 19001KT M07/M09 A3031 RMK A01 T10731089  RH  089%=      5-min Rain = 0
KAM2 091022Z 19001KT M07/M09 A3031 RMK A01 T10731089  RH  088%=      5-min Rain = 0
KAM2 091023Z 18001KT M07/M09 A3031 RMK A01 T10731089  RH  088%=      5-min Rain = 0
KAM2 091024Z 17001KT M07/M09 A3031 RMK A01 T10731089  RH  088%=      5-min Rain = 0
KAM2 091025Z 16001KT M07/M09 A3031 RMK A01 T10731089  RH  088%=      5-min Rain = 0
KAM2 091026Z 16001KT M07/M09 A3031 RMK A01 T10731090  RH  088%=      5-min Rain = 0
KAM2 091027Z 16002KT M07/M09 A3031 RMK A01 T10731090  RH  088%=      5-min Rain = 0
KAM2 091028Z 15002KT M07/M09 A3031 RMK A01 T10731090  RH  088%=      5-min Rain = 0
KAM2 091029Z 15002KT M07/M09 A3031 RMK A01 T10731089  RH  088%=      5-min Rain = 0
KAM2 091030Z 15002KT M07/M09 A3031 RMK A01 T10731090  RH  088%=      5-min Rain = 0
KAM2 091031Z 16002KT M07/M09 A3031 RMK A01 T10721089  RH  088%=      5-min Rain = 0
KAM2 091032Z 16002KT M07/M09 A3031 RMK A01 T10721089  RH  088%=      5-min Rain = 0
KAM2 091033Z 16002KT M07/M09 A3031 RMK A01 T10721089  RH  088%=      5-min Rain = 0
KAM2 091034Z 16002KT M07/M09 A3031 RMK A01 T10711088  RH  088%=      5-min Rain = 0
KAM2 091035Z 17002KT M07/M09 A3031 RMK A01 T10711089  RH  087%=      5-min Rain = 0
KAM2 091036Z 17002KT M07/M09 A3031 RMK A01 T10711088  RH  088%=      5-min Rain = 0
KAM2 091037Z 17002KT M07/M09 A3031 RMK A01 T10711088  RH  088%=      5-min Rain = 0
KAM2 091038Z 17002KT M07/M09 A3031 RMK A01 T10711088  RH  088%=      5-min Rain = 0
KAM2 091039Z 18002KT M07/M09 A3031 RMK A01 T10711088  RH  088%=      5-min Rain = 0
KAM2 091040Z 18002KT M07/M09 A3031 RMK A01 T10711088  RH  088%=      5-min Rain = 0
KAM2 091041Z 18002KT M07/M09 A3031 RMK A01 T10711088  RH  088%=      5-min Rain = 0
KAM2 091042Z 18002KT M07/M09 A3031 RMK A01 T10711088  RH  088%=      5-min Rain = 0
KAM2 091043Z 19002KT M07/M09 A3031 RMK A01 T10711088  RH  088%=      5-min Rain = 0
KAM2 091044Z 18002KT M07/M09 A3031 RMK A01 T10711088  RH  088%=      5-min Rain = 0
KAM2 091045Z 18002KT M07/M09 A3031 RMK A01 T10711088  RH  088%=      5-min Rain = 0
KAM2 091046Z 18002KT M07/M09 A3031 RMK A01 T10711088  RH  088%=      5-min Rain = 0
KAM2 091047Z 18002KT M07/M09 A3031 RMK A01 T10711087  RH  088%=      5-min Rain = 0
KAM2 091048Z 19002KT M07/M09 A3031 RMK A01 T10701087  RH  088%=      5-min Rain = 0
KAM2 091049Z 19002KT M07/M09 A3031 RMK A01 T10711087  RH  088%=      5-min Rain = 0
KAM2 091050Z 20002KT M07/M09 A3031 RMK A01 T10711087  RH  088%=      5-min Rain = 0
KAM2 091051Z 19002KT M07/M09 A3031 RMK A01 T10701087  RH  088%=      5-min Rain = 0
KAM2 091052Z 20002KT M07/M09 A3031 RMK A01 T10701087  RH  088%=      5-min Rain = 0
KAM2 091053Z 18002KT M07/M09 A3031 RMK A01 T10701087  RH  088%=      5-min Rain = 0
KAM2 091054Z 19002KT M07/M09 A3031 RMK A01 T10691086  RH  088%=      5-min Rain = 0
KAM2 091055Z 19001KT M07/M09 A3031 RMK A01 T10701086  RH  088%=      5-min Rain = 0
KAM2 091056Z 20002KT M07/M09 A3031 RMK A01 T10701086  RH  088%=      5-min Rain = 0
KAM2 091057Z 20002KT M07/M09 A3031 RMK A01 T10701087  RH  088%=      5-min Rain = 0
KAM2 091058Z 20003KT M07/M09 A3031 RMK A01 T10701087  RH  088%=      5-min Rain = 0
KAM2 091059Z 20003KT M07/M09 A3031 RMK A01 T10701087  RH  088%=      5-min Rain = 0
KAM2 091100Z 19003KT M07/M09 A3031 RMK A01 T10701087  RH  088%=      5-min Rain = 0
KAM2 091101Z 19003KT M07/M09 A3031 RMK A01 T10711088  RH  088%=      5-min Rain = 0
KAM2 091102Z 19003KT M07/M09 A3031 RMK A01 T10711088  RH  088%=      5-min Rain = 0
KAM2 091103Z 19003KT M07/M09 A3031 RMK A01 T10721089  RH  088%=      5-min Rain = 0
KAM2 091104Z 19003KT M07/M09 A3031 RMK A01 T10731090  RH  088%=      5-min Rain = 0
KAM2 091105Z 19003KT M07/M09 A3031 RMK A01 T10731090  RH  088%=      5-min Rain = 0
KAM2 091106Z 19003KT M07/M09 A303 RMK A01 T10731090  RH  088%=      5-min Rain = 0
KAM2 091107Z 19003KT M07/M09 A303 RMK A01 T10741091  RH  088%=      5-min Rain = 0
KAM2 091108Z 20003KT M07/M09 A3031 RMK A01 T10741090  RH  088%=      5-min Rain = 0
KAM2 091109Z 19003KT M07/M09 A3031 RMK A01 T10741090  RH  088%=      5-min Rain = 0
KAM2 091110Z 18003KT M07/M09 A303 RMK A01 T10741090  RH  088%=      5-min Rain = 0
KAM2 091111Z 18002KT M07/M09 A303 RMK A01 T10731089  RH  088%=      5-min Rain = 0
KAM2 091112Z 18002KT M07/M09 A3031 RMK A01 T10731089  RH  088%=      5-min Rain = 0
KAM2 091113Z 19002KT M07/M09 A3031 RMK A01 T10731090  RH  088%=      5-min Rain = 0
KAM2 091114Z 19003KT M07/M09 A3031 RMK A01 T10731090  RH  088%=      5-min Rain = 0
KAM2 091115Z 19003KT M07/M09 A303 RMK A01 T10731089  RH  088%=      5-min Rain = 0
KAM2 091116Z 19003KT M07/M09 A303 RMK A01 T10731090  RH  088%=      5-min Rain = 0
KAM2 091117Z 19003KT M07/M09 A303 RMK A01 T10731090  RH  088%=      5-min Rain = 0
KAM2 091118Z 19003KT M07/M09 A303 RMK A01 T10731090  RH  087%=      5-min Rain = 0
KAM2 091119Z 18002KT M07/M09 A303 RMK A01 T10731090  RH  087%=      5-min Rain = 0
KAM2 091120Z 18002KT M07/M09 A303 RMK A01 T10731091  RH  087%=      5-min Rain = 0
KAM2 091121Z 18002KT M07/M09 A303 RMK A01 T10731091  RH  087%=      5-min Rain = 0
KAM2 091122Z 18002KT M07/M09 A303 RMK A01 T10731090  RH  088%=      5-min Rain = 0
KAM2 091123Z 18002KT M07/M09 A303 RMK A01 T10731090  RH  088%=      5-min Rain = 0
KAM2 091124Z 19002KT M07/M09 A303 RMK A01 T10731090  RH  088%=      5-min Rain = 0
KAM2 091125Z 19002KT M07/M09 A303 RMK A01 T10731090  RH  088%=      5-min Rain = 0
KAM2 091126Z 19002KT M07/M09 A303 RMK A01 T10731090  RH  088%=      5-min Rain = 0
KAM2 091127Z 19002KT M07/M09 A3031 RMK A01 T10741091  RH  087%=      5-min Rain = 0
KAM2 091128Z 19002KT M07/M09 A3031 RMK A01 T10741092  RH  087%=      5-min Rain = 0
KAM2 091129Z 18002KT M08/M09 A3031 RMK A01 T10751091  RH  088%=      5-min Rain = 0
KAM2 091130Z 18002KT M08/M09 A3031 RMK A01 T10751091  RH  088%=      5-min Rain = 0
KAM2 091131Z 19002KT M08/M09 A3031 RMK A01 T10751091  RH  088%=      5-min Rain = 0
KAM2 091132Z 20002KT M08/M09 A3031 RMK A01 T10751091  RH  088%=      5-min Rain = 0
KAM2 091133Z 20001KT M08/M09 A3031 RMK A01 T10751091  RH  088%=      5-min Rain = 0
KAM2 091134Z 20001KT M08/M09 A3031 RMK A01 T10751091  RH  088%=      5-min Rain = 0
KAM2 091135Z 20001KT M08/M09 A3031 RMK A01 T10751092  RH  088%=      5-min Rain = 0
KAM2 091136Z 19001KT M08/M09 A3031 RMK A01 T10751092  RH  088%=      5-min Rain = 0
KAM2 091137Z 18001KT M08/M09 A3031 RMK A01 T10761092  RH  088%=      5-min Rain = 0
KAM2 091138Z 18001KT M08/M09 A3031 RMK A01 T10761091  RH  089%=      5-min Rain = 0
KAM2 091139Z 17002KT M08/M09 A3031 RMK A01 T10761091  RH  089%=      5-min Rain = 0
KAM2 091140Z 17002KT M08/M09 A3031 RMK A01 T10761091  RH  089%=      5-min Rain = 0
KAM2 091141Z 17002KT M08/M09 A3031 RMK A01 T10761091  RH  089%=      5-min Rain = 0
KAM2 091142Z 18002KT M08/M09 A3031 RMK A01 T10761091  RH  089%=      5-min Rain = 0
KAM2 091143Z 18002KT M08/M09 A3031 RMK A01 T10761092  RH  088%=      5-min Rain = 0
KAM2 091144Z 18002KT M08/M09 A3031 RMK A01 T10771093  RH  088%=      5-min Rain = 0
KAM2 091145Z 18002KT M08/M09 A3031 RMK A01 T10781094  RH  088%=      5-min Rain = 0
KAM2 091146Z 18002KT M08/M09 A3031 RMK A01 T10781093  RH  089%=      5-min Rain = 0
KAM2 091147Z 18002KT M08/M09 A3031 RMK A01 T10781093  RH  089%=      5-min Rain = 0
KAM2 091148Z 18002KT M08/M09 A3031 RMK A01 T10781093  RH  089%=      5-min Rain = 0
KAM2 091149Z 18002KT M08/M09 A3031 RMK A01 T10781093  RH  089%=      5-min Rain = 0
KAM2 091150Z 18002KT M08/M09 A3031 RMK A01 T10781093  RH  089%=      5-min Rain = 0
KAM2 091151Z 18002KT M08/M09 A3031 RMK A01 T10781093  RH  089%=      5-min Rain = 0
KAM2 091152Z 19002KT M08/M09 A3031 RMK A01 T10791093  RH  090%=      5-min Rain = 0
KAM2 091153Z 19002KT M08/M09 A3031 RMK A01 T10791093  RH  090%=      5-min Rain = 0
KAM2 091154Z 20002KT M08/M09 A3031 RMK A01 T10781093  RH  090%=      5-min Rain = 0
KAM2 091155Z 20002KT M08/M09 A3031 RMK A01 T10791093  RH  090%=      5-min Rain = 0
KAM2 091156Z 20002KT M08/M09 A3031 RMK A01 T10791094  RH  090%=      5-min Rain = 0
KAM2 091157Z 20002KT M08/M09 A3031 RMK A01 T10791094  RH  090%=      5-min Rain = 0
KAM2 091158Z 19002KT M08/M09 A3031 RMK A01 T10801094  RH  090%=      5-min Rain = 0
KAM2 091159Z 19002KT M08/M09 A3031 RMK A01 T10801093  RH  090%=      5-min Rain = 0
KAM2 091200Z 19002KT M08/M09 A3032 RMK A01 T10801094  RH  090%=      5-min Rain = 0
KAM2 091201Z 19002KT M08/M10 A3032 RMK A01 T10801095  RH  090%=      5-min Rain = 0
KAM2 091202Z 20002KT M08/M10 A3032 RMK A01 T10811095  RH  090%=      5-min Rain = 0
KAM2 091203Z 20002KT M08/M10 A3032 RMK A01 T10811095  RH  090%=      5-min Rain = 0
KAM2 091204Z 20002KT M08/M09 A3032 RMK A01 T10811094  RH  090%=      5-min Rain = 0
KAM2 091205Z 21002KT M08/M10 A3032 RMK A01 T10811095  RH  090%=      5-min Rain = 0
KAM2 091206Z 20001KT M08/M10 A3032 RMK A01 T10811095  RH  090%=      5-min Rain = 0
KAM2 091207Z 20001KT M08/M10 A3032 RMK A01 T10811095  RH  089%=      5-min Rain = 0
KAM2 091208Z 18002KT M08/M10 A3032 RMK A01 T10811095  RH  089%=      5-min Rain = 0
KAM2 091209Z 18002KT M08/M10 A3032 RMK A01 T10811096  RH  089%=      5-min Rain = 0
KAM2 091210Z 18002KT M08/M10 A3032 RMK A01 T10811096  RH  089%=      5-min Rain = 0
KAM2 091211Z 18002KT M08/M10 A3032 RMK A01 T10821096  RH  090%=      5-min Rain = 0
KAM2 091212Z 18002KT M08/M10 A3032 RMK A01 T10811095  RH  090%=      5-min Rain = 0
KAM2 091213Z 18002KT M08/M10 A3032 RMK A01 T10811095  RH  090%=      5-min Rain = 0
KAM2 091214Z 18002KT M08/M10 A3032 RMK A01 T10811095  RH  090%=      5-min Rain = 0
KAM2 091215Z 18002KT M08/M10 A3032 RMK A01 T10811095  RH  090%=      5-min Rain = 0
KAM2 091216Z 18002KT M08/M10 A3032 RMK A01 T10821097  RH  089%=      5-min Rain = 0
KAM2 091217Z 18002KT M08/M10 A3032 RMK A01 T10831097  RH  089%=      5-min Rain = 0
KAM2 091218Z 18002KT M08/M10 A3032 RMK A01 T10831097  RH  090%=      5-min Rain = 0
KAM2 091219Z 17001KT M08/M10 A3032 RMK A01 T10831096  RH  090%=      5-min Rain = 0
KAM2 091220Z 17001KT M08/M10 A3032 RMK A01 T10831096  RH  090%=      5-min Rain = 0
KAM2 091221Z 16001KT M08/M10 A3032 RMK A01 T10831095  RH  091%=      5-min Rain = 0
KAM2 091222Z 16001KT M08/M10 A3032 RMK A01 T10821095  RH  091%=      5-min Rain = 0
KAM2 091223Z 16001KT M08/M09 A3032 RMK A01 T10821094  RH  091%=      5-min Rain = 0
KAM2 091224Z 16002KT M08/M09 A3032 RMK A01 T10821094  RH  091%=      5-min Rain = 0
KAM2 091225Z 16002KT M08/M09 A3032 RMK A01 T10821094  RH  091%=      5-min Rain = 0
KAM2 091226Z 18002KT M08/M09 A3032 RMK A01 T10821094  RH  091%=      5-min Rain = 0
KAM2 091227Z 18002KT M08/M10 A3032 RMK A01 T10821095  RH  091%=      5-min Rain = 0
KAM2 091228Z 18002KT M08/M10 A3032 RMK A01 T10841098  RH  090%=      5-min Rain = 0
KAM2 091229Z 18002KT M09/M10 A3032 RMK A01 T10851099  RH  090%=      5-min Rain = 0
KAM2 091230Z 18002KT M09/M10 A3032 RMK A01 T10861100  RH  090%=      5-min Rain = 0
KAM2 091231Z 18002KT M09/M10 A3032 RMK A01 T10861100  RH  090%=      5-min Rain = 0
KAM2 091232Z 18002KT M09/M10 A3033 RMK A01 T10871100  RH  090%=      5-min Rain = 0
KAM2 091233Z 18002KT M09/M10 A3033 RMK A01 T10871101  RH  090%=      5-min Rain = 0
KAM2 091234Z 18002KT M09/M10 A3033 RMK A01 T10881101  RH  090%=      5-min Rain = 0
KAM2 091235Z 18002KT M09/M10 A3033 RMK A01 T10891102  RH  090%=      5-min Rain = 0
KAM2 091236Z 18002KT M09/M10 A3033 RMK A01 T10891102  RH  090%=      5-min Rain = 0
KAM2 091237Z 18001KT M09/M10 A3033 RMK A01 T10891102  RH  090%=      5-min Rain = 0
KAM2 091238Z 17001KT M09/M10 A3033 RMK A01 T10891102  RH  090%=      5-min Rain = 0
KAM2 091239Z 15001KT M09/M10 A3033 RMK A01 T10881100  RH  091%=      5-min Rain = 0
KAM2 091240Z 14001KT M09/M10 A3033 RMK A01 T10871100  RH  090%=      5-min Rain = 0
KAM2 091241Z 14001KT M09/M10 A3033 RMK A01 T10871100  RH  090%=      5-min Rain = 0
KAM2 091242Z 14001KT M09/M10 A3033 RMK A01 T10871100  RH  090%=      5-min Rain = 0
KAM2 091243Z 13001KT M09/M10 A3033 RMK A01 T10871101  RH  090%=      5-min Rain = 0
KAM2 091244Z 12000KT M09/M10 A3033 RMK A01 T10871101  RH  090%=      5-min Rain = 0
KAM2 091245Z 11000KT M09/M10 A3033 RMK A01 T10871101  RH  090%=      5-min Rain = 0
KAM2 091246Z 09001KT M09/M10 A3033 RMK A01 T10871101  RH  090%=      5-min Rain = 0
KAM2 091247Z 10001KT M09/M10 A3033 RMK A01 T10871101  RH  090%=      5-min Rain = 0
KAM2 091248Z 11001KT M09/M10 A3033 RMK A01 T10871101  RH  090%=      5-min Rain = 0
KAM2 091249Z 11000KT M09/M10 A3033 RMK A01 T10871101  RH  090%=      5-min Rain = 0
KAM2 091250Z 00000KT M09/M10 A3033 RMK A01 T10871101  RH  090%=      5-min Rain = 0
KAM2 091251Z 00000KT M09/M10 A3033 RMK A01 T10871101  RH  090%=      5-min Rain = 0
KAM2 091252Z 00000KT M09/M10 A3033 RMK A01 T10871101  RH  089%=      5-min Rain = 0
KAM2 091253Z 14000KT M09/M10 A3033 RMK A01 T10871101  RH  089%=      5-min Rain = 0
KAM2 091254Z 15001KT M09/M10 A3033 RMK A01 T10861100  RH  090%=      5-min Rain = 0
KAM2 091255Z 15001KT M09/M10 A3033 RMK A01 T10871100  RH  090%=      5-min Rain = 0
KAM2 091256Z 15001KT M09/M10 A3033 RMK A01 T10871100  RH  090%=      5-min Rain = 0
KAM2 091257Z 15001KT M09/M10 A3033 RMK A01 T10861100  RH  090%=      5-min Rain = 0
KAM2 091258Z 17001KT M09/M10 A3033 RMK A01 T10861100  RH  090%=      5-min Rain = 0
KAM2 091259Z 17001KT M09/M10 A3033 RMK A01 T10861100  RH  090%=      5-min Rain = 0
KAM2 091300Z 17001KT M09/M10 A3033 RMK A01 T10861100  RH  090%=      5-min Rain = 0
KAM2 091301Z 17001KT M09/M10 A3033 RMK A01 T10861099  RH  090%=      5-min Rain = 0
KAM2 091302Z 17002KT M09/M10 A3033 RMK A01 T10851099  RH  090%=      5-min Rain = 0
KAM2 091303Z 17002KT M09/M10 A3034 RMK A01 T10851099  RH  090%=      5-min Rain = 0
KAM2 091304Z 17002KT M09/M10 A3034 RMK A01 T10851099  RH  090%=      5-min Rain = 0
KAM2 091305Z 17001KT M08/M10 A3034 RMK A01 T10841099  RH  090%=      5-min Rain = 0
KAM2 091306Z 18001KT M08/M10 A3034 RMK A01 T10841098  RH  090%=      5-min Rain = 0
KAM2 091307Z 18001KT M08/M10 A3034 RMK A01 T10841098  RH  089%=      5-min Rain = 0
KAM2 091308Z 21001KT M08/M10 A3034 RMK A01 T10841099  RH  088%=      5-min Rain = 0
KAM2 091309Z 22000KT M09/M10 A3034 RMK A01 T10851102  RH  088%=      5-min Rain = 0
KAM2 091310Z 22000KT M09/M10 A3034 RMK A01 T10861104  RH  087%=      5-min Rain = 0
KAM2 091311Z 00000KT M09/M11 A3034 RMK A01 T10871105  RH  087%=      5-min Rain = 0
KAM2 091312Z 00000KT M09/M11 A3034 RMK A01 T10881105  RH  087%=      5-min Rain = 0
KAM2 091313Z 16000KT M09/M11 A3034 RMK A01 T10891106  RH  088%=      5-min Rain = 0
KAM2 091314Z 17001KT M09/M11 A3034 RMK A01 T10891105  RH  089%=      5-min Rain = 0
KAM2 091315Z 17001KT M09/M10 A3034 RMK A01 T10901104  RH  089%=      5-min Rain = 0
KAM2 091316Z 17001KT M09/M10 A3034 RMK A01 T10891104  RH  089%=      5-min Rain = 0
KAM2 091317Z 17001KT M09/M10 A3034 RMK A01 T10891103  RH  090%=      5-min Rain = 0
KAM2 091318Z 16001KT M09/M10 A3034 RMK A01 T10881102  RH  090%=      5-min Rain = 0
KAM2 091319Z 16001KT M09/M10 A3034 RMK A01 T10881103  RH  089%=      5-min Rain = 0
KAM2 091320Z 16001KT M09/M10 A3034 RMK A01 T10891104  RH  089%=      5-min Rain = 0
KAM2 091321Z 16001KT M09/M11 A3034 RMK A01 T10901105  RH  089%=      5-min Rain = 0
KAM2 091322Z 17001KT M09/M11 A3034 RMK A01 T10901105  RH  089%=      5-min Rain = 0
KAM2 091323Z 17001KT M09/M11 A3034 RMK A01 T10911106  RH  089%=      5-min Rain = 0
KAM2 091324Z 17001KT M09/M11 A3034 RMK A01 T10921108  RH  089%=      5-min Rain = 0
KAM2 091325Z 16001KT M09/M11 A3034 RMK A01 T10931108  RH  089%=      5-min Rain = 0
KAM2 091326Z 17001KT M09/M11 A3034 RMK A01 T10941109  RH  089%=      5-min Rain = 0
KAM2 091327Z 17001KT M09/M11 A3034 RMK A01 T10941109  RH  089%=      5-min Rain = 0
KAM2 091328Z 18002KT M09/M11 A3034 RMK A01 T10941108  RH  090%=      5-min Rain = 0
KAM2 091329Z 18002KT M10/M11 A3034 RMK A01 T10951109  RH  090%=      5-min Rain = 0
KAM2 091330Z 18002KT M10/M11 A3035 RMK A01 T10951109  RH  090%=      5-min Rain = 0
KAM2 091331Z 18002KT M10/M11 A3035 RMK A01 T10951109  RH  090%=      5-min Rain = 0
KAM2 091332Z 19002KT M10/M11 A3035 RMK A01 T10951109  RH  090%=      5-min Rain = 0
KAM2 091333Z 19002KT M10/M11 A3035 RMK A01 T10961109  RH  090%=      5-min Rain = 0
KAM2 091334Z 19002KT M10/M11 A3035 RMK A01 T10961109  RH  090%=      5-min Rain = 0
KAM2 091335Z 18002KT M10/M11 A3035 RMK A01 T10961110  RH  090%=      5-min Rain = 0
KAM2 091336Z 18002KT M10/M11 A3035 RMK A01 T10961109  RH  090%=      5-min Rain = 0
KAM2 091337Z 17002KT M10/M11 A3035 RMK A01 T10961110  RH  090%=      5-min Rain = 0
KAM2 091338Z 18002KT M10/M11 A3035 RMK A01 T10961109  RH  090%=      5-min Rain = 0
KAM2 091339Z 18002KT M10/M11 A3035 RMK A01 T10961109  RH  090%=      5-min Rain = 0
KAM2 091340Z 18002KT M10/M11 A3035 RMK A01 T10961109  RH  090%=      5-min Rain = 0
KAM2 091341Z 18002KT M10/M11 A3035 RMK A01 T10951108  RH  090%=      5-min Rain = 0
KAM2 091342Z 18002KT M10/M11 A3035 RMK A01 T10951109  RH  090%=      5-min Rain = 0
KAM2 091343Z 18002KT M10/M11 A3035 RMK A01 T10951109  RH  089%=      5-min Rain = 0
KAM2 091344Z 18002KT M10/M11 A3035 RMK A01 T10951109  RH  089%=      5-min Rain = 0
KAM2 091345Z 19002KT M10/M11 A3035 RMK A01 T10951109  RH  089%=      5-min Rain = 0
KAM2 091346Z 19002KT M10/M11 A3035 RMK A01 T10951109  RH  089%=      5-min Rain = 0
KAM2 091347Z 19002KT M10/M11 A3035 RMK A01 T10951109  RH  089%=      5-min Rain = 0
KAM2 091348Z 18002KT M10/M11 A3035 RMK A01 T10951110  RH  089%=      5-min Rain = 0
KAM2 091349Z 18002KT M10/M11 A3035 RMK A01 T10951110  RH  089%=      5-min Rain = 0
KAM2 091350Z 18002KT M10/M11 A3035 RMK A01 T10951109  RH  089%=      5-min Rain = 0
KAM2 091351Z 18003KT M10/M11 A3035 RMK A01 T10951109  RH  090%=      5-min Rain = 0
KAM2 091352Z 18003KT M10/M11 A3035 RMK A01 T10951109  RH  090%=      5-min Rain = 0
KAM2 091353Z 18003KT M10/M11 A3035 RMK A01 T10951109  RH  090%=      5-min Rain = 0
KAM2 091354Z 18003KT M10/M11 A3035 RMK A01 T10961110  RH  090%=      5-min Rain = 0
KAM2 091355Z 18003KT M10/M11 A3035 RMK A01 T10951109  RH  090%=      5-min Rain = 0
KAM2 091356Z 18003KT M10/M11 A3035 RMK A01 T10961110  RH  090%=      5-min Rain = 0
KAM2 091357Z 19003KT M10/M11 A3035 RMK A01 T10961109  RH  090%=      5-min Rain = 0
KAM2 091358Z 19003KT M10/M11 A3035 RMK A01 T10951109  RH  090%=      5-min Rain = 0
KAM2 091359Z 18003KT M10/M11 A3035 RMK A01 T10951108  RH  090%=      5-min Rain = 0
KAM2 091400Z 18003KT M09/M11 A3035 RMK A01 T10941108  RH  090%=      5-min Rain = 0
KAM2 091401Z 18003KT M09/M11 A3035 RMK A01 T10941108  RH  089%=      5-min Rain = 0
KAM2 091402Z 19002KT M09/M11 A3035 RMK A01 T10941108  RH  089%=      5-min Rain = 0
KAM2 091403Z 19002KT M09/M11 A3035 RMK A01 T10931108  RH  089%=      5-min Rain = 0
KAM2 091404Z 18002KT M09/M11 A3035 RMK A01 T10931108  RH  089%=      5-min Rain = 0
KAM2 091405Z 18002KT M09/M11 A3035 RMK A01 T10931107  RH  089%=      5-min Rain = 0
KAM2 091406Z 18002KT M09/M11 A3035 RMK A01 T10931108  RH  089%=      5-min Rain = 0
KAM2 091407Z 18003KT M09/M11 A3035 RMK A01 T10931108  RH  089%=      5-min Rain = 0
KAM2 091408Z 18003KT M09/M11 A3035 RMK A01 T10931108  RH  089%=      5-min Rain = 0
KAM2 091409Z 18002KT M09/M11 A3035 RMK A01 T10931108  RH  089%=      5-min Rain = 0
KAM2 091410Z 18002KT M09/M11 A3035 RMK A01 T10931108  RH  089%=      5-min Rain = 0
KAM2 091411Z 18002KT M09/M11 A3035 RMK A01 T10921108  RH  089%=      5-min Rain = 0
KAM2 091412Z 18002KT M09/M11 A3035 RMK A01 T10921107  RH  089%=      5-min Rain = 0
KAM2 091413Z 17003KT M09/M11 A3035 RMK A01 T10911106  RH  089%=      5-min Rain = 0
KAM2 091414Z 16003KT M09/M11 A3035 RMK A01 T10891105  RH  089%=      5-min Rain = 0
KAM2 091415Z 18002KT M09/M10 A3035 RMK A01 T10881103  RH  089%=      5-min Rain = 0
KAM2 091416Z 18003KT M09/M10 A3035 RMK A01 T10871103  RH  089%=      5-min Rain = 0
KAM2 091417Z 18002KT M09/M10 A3035 RMK A01 T10861102  RH  088%=      5-min Rain = 0
KAM2 091418Z 18002KT M09/M10 A3035 RMK A01 T10851102  RH  088%=      5-min Rain = 0
KAM2 091419Z 18002KT M08/M10 A3035 RMK A01 T10841101  RH  088%=      5-min Rain = 0
KAM2 091420Z 18002KT M08/M10 A3035 RMK A01 T10841101  RH  087%=      5-min Rain = 0
KAM2 091421Z 18002KT M08/M10 A3035 RMK A01 T10841101  RH  087%=      5-min Rain = 0
KAM2 091422Z 18002KT M08/M10 A3035 RMK A01 T10831100  RH  087%=      5-min Rain = 0
KAM2 091423Z 17002KT M08/M10 A3035 RMK A01 T10811099  RH  087%=      5-min Rain = 0
KAM2 091424Z 17002KT M08/M10 A3035 RMK A01 T10811098  RH  088%=      5-min Rain = 0
KAM2 091425Z 18002KT M08/M10 A3035 RMK A01 T10791096  RH  088%=      5-min Rain = 0
KAM2 091426Z 18002KT M08/M10 A3035 RMK A01 T10781095  RH  088%=      5-min Rain = 0
KAM2 091427Z 19002KT M08/M09 A3035 RMK A01 T10771094  RH  087%=      5-min Rain = 0
KAM2 091428Z 19002KT M08/M09 A3035 RMK A01 T10751093  RH  087%=      5-min Rain = 0
KAM2 091429Z 19002KT M07/M09 A3035 RMK A01 T10741092  RH  087%=      5-min Rain = 0
KAM2 091430Z 19001KT M07/M09 A3036 RMK A01 T10711090  RH  087%=      5-min Rain = 0
KAM2 091431Z 18001KT M07/M09 A3036 RMK A01 T10691088  RH  087%=      5-min Rain = 0
KAM2 091432Z 19001KT M07/M09 A3036 RMK A01 T10681087  RH  086%=      5-min Rain = 0
KAM2 091433Z 19002KT M07/M09 A3036 RMK A01 T10661086  RH  086%=      5-min Rain = 0
KAM2 091434Z 19002KT M07/M09 A3036 RMK A01 T10651085  RH  086%=      5-min Rain = 0
KAM2 091435Z 17002KT M06/M09 A3036 RMK A01 T10641085  RH  085%=      5-min Rain = 0
KAM2 091436Z 17002KT M06/M09 A3036 RMK A01 T10631085  RH  084%=      5-min Rain = 0
KAM2 091437Z 17002KT M06/M09 A3036 RMK A01 T10621085  RH  084%=      5-min Rain = 0
KAM2 091438Z 16002KT M06/M09 A3036 RMK A01 T10611085  RH  084%=      5-min Rain = 0
KAM2 091439Z 16002KT M06/M08 A3036 RMK A01 T10611084  RH  084%=      5-min Rain = 0
KAM2 091440Z 16002KT M06/M08 A3036 RMK A01 T10601083  RH  084%=      5-min Rain = 0
KAM2 091441Z 15002KT M06/M08 A3036 RMK A01 T10601083  RH  084%=      5-min Rain = 0
KAM2 091442Z 16002KT M06/M08 A3036 RMK A01 T10591083  RH  084%=      5-min Rain = 0
KAM2 091443Z 16001KT M06/M08 A3036 RMK A01 T10591082  RH  084%=      5-min Rain = 0
KAM2 091444Z 18002KT M06/M08 A3036 RMK A01 T10581082  RH  084%=      5-min Rain = 0
KAM2 091445Z 17001KT M06/M08 A3036 RMK A01 T10581081  RH  084%=      5-min Rain = 0
KAM2 091446Z 17001KT M06/M08 A3036 RMK A01 T10571081  RH  084%=      5-min Rain = 0
KAM2 091447Z 18001KT M06/M08 A3036 RMK A01 T10571079  RH  084%=      5-min Rain = 0
KAM2 091448Z 19001KT M06/M08 A3036 RMK A01 T10561079  RH  084%=      5-min Rain = 0
KAM2 091449Z 18001KT M06/M08 A3036 RMK A01 T10551078  RH  084%=      5-min Rain = 0
KAM2 091450Z 20001KT M06/M08 A3036 RMK A01 T10551077  RH  084%=      5-min Rain = 0
KAM2 091451Z 19001KT M05/M08 A3036 RMK A01 T10541076  RH  085%=      5-min Rain = 0
KAM2 091452Z 20001KT M05/M08 A3036 RMK A01 T10531075  RH  085%=      5-min Rain = 0
KAM2 091453Z 19001KT M05/M07 A3036 RMK A01 T10521072  RH  086%=      5-min Rain = 0
KAM2 091454Z 22001KT M05/M07 A3036 RMK A01 T10501071  RH  086%=      5-min Rain = 0
KAM2 091455Z 23001KT M05/M07 A3036 RMK A01 T10491070  RH  086%=      5-min Rain = 0
KAM2 091456Z 25001KT M05/M07 A3036 RMK A01 T10471067  RH  086%=      5-min Rain = 0
KAM2 091457Z 22001KT M05/M07 A3036 RMK A01 T10461066  RH  086%=      5-min Rain = 0
KAM2 091458Z 24001KT M04/M07 A3036 RMK A01 T10441065  RH  085%=      5-min Rain = 0
KAM2 091459Z 23000KT M04/M06 A3036 RMK A01 T10421064  RH  085%=      5-min Rain = 0
KAM2 091500Z 27001KT M04/M06 A3036 RMK A01 T10411062  RH  085%=      5-min Rain = 0
KAM2 091501Z 27002KT M04/M06 A3036 RMK A01 T10391060  RH  085%=      5-min Rain = 0
KAM2 091502Z 27003KT M04/M06 A3036 RMK A01 T10371059  RH  085%=      5-min Rain = 0
KAM2 091503Z 28003KT M04/M06 A3036 RMK A01 T10351058  RH  084%=      5-min Rain = 0
KAM2 091504Z 28003KT M03/M06 A3036 RMK A01 T10331056  RH  084%=      5-min Rain = 0
KAM2 091505Z 28003KT M03/M06 A3036 RMK A01 T10321056  RH  083%=      5-min Rain = 0
KAM2 091506Z 28004KT M03/M06 A3036 RMK A01 T10301056  RH  083%=      5-min Rain = 0
KAM2 091507Z 28003KT M03/M06 A3036 RMK A01 T10301057  RH  082%=      5-min Rain = 0
KAM2 091508Z 29004KT M03/M06 A3036 RMK A01 T10291055  RH  082%=      5-min Rain = 0
KAM2 091509Z 28004KT M03/M05 A3036 RMK A01 T10281054  RH  082%=      5-min Rain = 0
KAM2 091510Z 29004KT M03/M05 A3036 RMK A01 T10271054  RH  082%=      5-min Rain = 0
KAM2 091511Z 29005KT M03/M06 A3036 RMK A01 T10271056  RH  081%=      5-min Rain = 0
KAM2 091512Z 28005KT M03/M06 A3036 RMK A01 T10271056  RH  080%=      5-min Rain = 0
KAM2 091513Z 28004KT M03/M06 A3036 RMK A01 T10261055  RH  080%=      5-min Rain = 0
KAM2 091514Z 29004KT M03/M05 A3036 RMK A01 T10251054  RH  080%=      5-min Rain = 0
KAM2 091515Z 29004KT M03/M06 A3036 RMK A01 T10251055  RH  080%=      5-min Rain = 0
KAM2 091516Z 27004KT M02/M06 A3036 RMK A01 T10241055  RH  080%=      5-min Rain = 0
KAM2 091517Z 27004KT M02/M06 A3036 RMK A01 T10241056  RH  078%=      5-min Rain = 0
KAM2 091518Z 28004KT M02/M06 A3036 RMK A01 T10241057  RH  078%=      5-min Rain = 0
KAM2 091519Z 27003KT M02/M06 A3036 RMK A01 T10241056  RH  079%=      5-min Rain = 0
KAM2 091520Z 28004KT M02/M06 A3036 RMK A01 T10231055  RH  079%=      5-min Rain = 0
KAM2 091521Z 27004KT M02/M06 A3036 RMK A01 T10231056  RH  078%=      5-min Rain = 0
KAM2 091522Z 27004KT M02/M06 A3036 RMK A01 T10221056  RH  077%=      5-min Rain = 0
KAM2 091523Z 28004KT M02/M06 A3037 RMK A01 T10231057  RH  077%=      5-min Rain = 0
KAM2 091524Z 27005KT M02/M06 A3037 RMK A01 T10231056  RH  078%=      5-min Rain = 0
KAM2 091525Z 28005KT M02/M05 A3037 RMK A01 T10221053  RH  079%=      5-min Rain = 0
KAM2 091526Z 28006KT M02/M05 A3037 RMK A01 T10211053  RH  078%=      5-min Rain = 0
KAM2 091527Z 27005KT M02/M05 A3037 RMK A01 T10211054  RH  078%=      5-min Rain = 0
KAM2 091528Z 27005KT M02/M05 A3037 RMK A01 T10201054  RH  078%=      5-min Rain = 0
KAM2 091529Z 28004KT M02/M05 A3037 RMK A01 T10201054  RH  078%=      5-min Rain = 0
KAM2 091530Z 27005KT M02/M05 A3037 RMK A01 T10191053  RH  078%=      5-min Rain = 0
KAM2 091531Z 27005KT M02/M05 A3037 RMK A01 T10181054  RH  076%=      5-min Rain = 0
KAM2 091532Z 29005KT M02/M05 A3037 RMK A01 T10181054  RH  077%=      5-min Rain = 0
KAM2 091533Z 30005KT M02/M05 A3037 RMK A01 T10171053  RH  077%=      5-min Rain = 0
KAM2 091534Z 30005KT M02/M05 A3037 RMK A01 T10161054  RH  076%=      5-min Rain = 0
KAM2 091535Z 30005KT M02/M06 A3037 RMK A01 T10171056  RH  075%=      5-min Rain = 0
KAM2 091536Z 30005KT M02/M06 A3037 RMK A01 T10171056  RH  075%=      5-min Rain = 0
KAM2 091537Z 28004KT M02/M06 A3037 RMK A01 T10171055  RH  075%=      5-min Rain = 0
KAM2 091538Z 29005KT M02/M05 A3037 RMK A01 T10161054  RH  075%=      5-min Rain = 0
KAM2 091539Z 29004KT M02/M05 A3037 RMK A01 T10151054  RH  075%=      5-min Rain = 0
KAM2 091540Z 31005KT M02/M06 A3038 RMK A01 T10151055  RH  074%=      5-min Rain = 0
KAM2 091541Z 30005KT M01/M06 A3038 RMK A01 T10141055  RH  074%=      5-min Rain = 0
KAM2 091542Z 28005KT M01/M06 A3038 RMK A01 T10141055  RH  074%=      5-min Rain = 0
KAM2 091543Z 29004KT M01/M05 A3038 RMK A01 T10131054  RH  074%=      5-min Rain = 0
KAM2 091544Z 30004KT M01/M05 A3038 RMK A01 T10111054  RH  073%=      5-min Rain = 0
KAM2 091545Z 30005KT M01/M05 A3038 RMK A01 T10101053  RH  073%=      5-min Rain = 0
KAM2 091546Z 30004KT M01/M05 A3038 RMK A01 T10091054  RH  072%=      5-min Rain = 0
KAM2 091547Z 30003KT M01/M06 A3038 RMK A01 T10101057  RH  070%=      5-min Rain = 0
KAM2 091548Z 31003KT M01/M06 A3038 RMK A01 T10101056  RH  071%=      5-min Rain = 0
KAM2 091549Z 31003KT M01/M06 A3038 RMK A01 T10101056  RH  071%=      5-min Rain = 0
KAM2 091550Z 31002KT M01/M06 A3038 RMK A01 T10101057  RH  070%=      5-min Rain = 0
KAM2 091551Z 28002KT M01/M06 A3038 RMK A01 T10101057  RH  070%=      5-min Rain = 0
KAM2 091552Z 32003KT M01/M06 A3038 RMK A01 T10101057  RH  070%=      5-min Rain = 0
KAM2 091553Z 30002KT M01/M06 A3038 RMK A01 T10091057  RH  070%=      5-min Rain = 0
KAM2 091554Z 29003KT M01/M06 A3038 RMK A01 T10081055  RH  070%=      5-min Rain = 0
KAM2 091555Z 30004KT M01/M05 A3038 RMK A01 T10061054  RH  070%=      5-min Rain = 0
KAM2 091556Z 30004KT M01/M06 A3038 RMK A01 T10051055  RH  069%=      5-min Rain = 0
KAM2 091557Z 29004KT M01/M06 A3038 RMK A01 T10051055  RH  069%=      5-min Rain = 0
KAM2 091558Z 30003KT M01/M06 A3038 RMK A01 T10051056  RH  068%=      5-min Rain = 0
KAM2 091559Z 29002KT M00/M06 A3038 RMK A01 T10041055  RH  068%=      5-min Rain = 0
KAM2 091600Z 29003KT M00/M06 A3038 RMK A01 T10031055  RH  068%=      5-min Rain = 0
KAM2 091601Z 27004KT M00/M06 A3038 RMK A01 T10031056  RH  067%=      5-min Rain = 0
KAM2 091602Z 28002KT M00/M06 A3038 RMK A01 T10031056  RH  067%=      5-min Rain = 0
KAM2 091603Z 27001KT M00/M06 A3038 RMK A01 T10031057  RH  067%=      5-min Rain = 0
KAM2 091604Z 28003KT M00/M05 A3038 RMK A01 T10021054  RH  068%=      5-min Rain = 0
KAM2 091605Z 29004KT 00/05 A3038 RMK A01 T00-00-53  RH  067%=      5-min Rain = 0
KAM2 091606Z 29003KT 00/06 A3038 RMK A01 T00000-55  RH  066%=      5-min Rain = 0
KAM2 091607Z 29001KT 00/06 A3038 RMK A01 T00000-56  RH  066%=      5-min Rain = 0
KAM2 091608Z 28003KT 00/M05 A3039 RMK A01 T00011053  RH  067%=      5-min Rain = 0
KAM2 091609Z 30004KT 00/M05 A3039 RMK A01 T00031053  RH  066%=      5-min Rain = 0
KAM2 091610Z 32004KT 00/M05 A3039 RMK A01 T00041053  RH  065%=      5-min Rain = 0
KAM2 091611Z 31004KT 01/M06 A3039 RMK A01 T00051056  RH  064%=      5-min Rain = 0
KAM2 091612Z 30005KT 01/M05 A3039 RMK A01 T00061054  RH  064%=      5-min Rain = 0
KAM2 091613Z 30004KT 01/M05 A3039 RMK A01 T00071053  RH  064%=      5-min Rain = 0
KAM2 091614Z 30003KT 01/M05 A3039 RMK A01 T00071054  RH  064%=      5-min Rain = 0
KAM2 091615Z 30004KT 01/M05 A3039 RMK A01 T00091052  RH  063%=      5-min Rain = 0
KAM2 091616Z 32003KT 01/M05 A3039 RMK A01 T00101054  RH  062%=      5-min Rain = 0
KAM2 091617Z 30004KT 01/M05 A3039 RMK A01 T00101054  RH  062%=      5-min Rain = 0
KAM2 091618Z 29004KT 01/M05 A3039 RMK A01 T00111052  RH  063%=      5-min Rain = 0
KAM2 091619Z 31004KT 01/M05 A3039 RMK A01 T00121052  RH  062%=      5-min Rain = 0
KAM2 091620Z 30005KT 01/M05 A3039 RMK A01 T00141050  RH  062%=      5-min Rain = 0
KAM2 091621Z 30004KT 02/M05 A3039 RMK A01 T00151052  RH  061%=      5-min Rain = 0
KAM2 091622Z 29004KT 01/M05 A3039 RMK A01 T00141053  RH  061%=      5-min Rain = 0
KAM2 091623Z 30004KT 01/M05 A3039 RMK A01 T00141052  RH  062%=      5-min Rain = 0
KAM2 091624Z 29005KT 01/M05 A3039 RMK A01 T00141052  RH  062%=      5-min Rain = 0
KAM2 091625Z 30005KT 01/M05 A3039 RMK A01 T00141052  RH  061%=      5-min Rain = 0
KAM2 091626Z 30004KT 01/M05 A3039 RMK A01 T00131053  RH  061%=      5-min Rain = 0
KAM2 091627Z 32005KT 01/M05 A3039 RMK A01 T00141052  RH  061%=      5-min Rain = 0
KAM2 091628Z 32004KT 02/M05 A3039 RMK A01 T00161051  RH  061%=      5-min Rain = 0
KAM2 091629Z 32005KT 02/M05 A3039 RMK A01 T00181050  RH  061%=      5-min Rain = 0
KAM2 091630Z 31005KT 02/M05 A3039 RMK A01 T00181053  RH  059%=      5-min Rain = 0
KAM2 091631Z 30005KT 02/M05 A3039 RMK A01 T00181052  RH  060%=      5-min Rain = 0
KAM2 091632Z 30004KT 02/M05 A3039 RMK A01 T00191050  RH  060%=      5-min Rain = 0
KAM2 091633Z 30005KT 02/M05 A3039 RMK A01 T00211050  RH  059%=      5-min Rain = 0
KAM2 091634Z 31005KT 02/M05 A3039 RMK A01 T00211052  RH  059%=      5-min Rain = 0
KAM2 091635Z 30004KT 02/M05 A3039 RMK A01 T00201052  RH  059%=      5-min Rain = 0
KAM2 091636Z 33005KT 02/M05 A3039 RMK A01 T00211050  RH  059%=      5-min Rain = 0
KAM2 091637Z 33004KT 02/M05 A3039 RMK A01 T00231048  RH  059%=      5-min Rain = 0
KAM2 091638Z 33003KT 02/M05 A3039 RMK A01 T00241048  RH  059%=      5-min Rain = 0
KAM2 091639Z 30005KT 02/M05 A3038 RMK A01 T00241051  RH  057%=      5-min Rain = 0
KAM2 091640Z 29006KT 03/M05 A3038 RMK A01 T00251052  RH  057%=      5-min Rain = 0
KAM2 091641Z 32004KT 03/M05 A3038 RMK A01 T00261052  RH  057%=      5-min Rain = 0
KAM2 091642Z 34005KT 03/M05 A3038 RMK A01 T00271051  RH  057%=      5-min Rain = 0
KAM2 091643Z 31005KT 03/M05 A3038 RMK A01 T00271051  RH  057%=      5-min Rain = 0
KAM2 091644Z 29006KT 03/M05 A3038 RMK A01 T00261052  RH  056%=      5-min Rain = 0
KAM2 091645Z 29005KT 03/M05 A3038 RMK A01 T00261051  RH  057%=      5-min Rain = 0
KAM2 091646Z 28005KT 03/M05 A3038 RMK A01 T00271051  RH  057%=      5-min Rain = 0
KAM2 091647Z 28006KT 03/M05 A3038 RMK A01 T00281052  RH  056%=      5-min Rain = 0
KAM2 091648Z 31006KT 03/M05 A3038 RMK A01 T00291051  RH  056%=      5-min Rain = 0
KAM2 091649Z 31005KT 03/M05 A3038 RMK A01 T00301051  RH  055%=      5-min Rain = 0
KAM2 091650Z 31006KT 03/M05 A3038 RMK A01 T00291053  RH  055%=      5-min Rain = 0
KAM2 091651Z 29004KT 03/M06 A3038 RMK A01 T00271056  RH  054%=      5-min Rain = 0
KAM2 091652Z 30003KT 03/M06 A3038 RMK A01 T00261056  RH  055%=      5-min Rain = 0
KAM2 091653Z 34006KT 03/M05 A3038 RMK A01 T00281053  RH  055%=      5-min Rain = 0
KAM2 091654Z 34006KT 03/M06 A3038 RMK A01 T00291055  RH  054%=      5-min Rain = 0
KAM2 091655Z 34006KT 03/M05 A3038 RMK A01 T00291053  RH  055%=      5-min Rain = 0
KAM2 091656Z 35004KT 03/M05 A3038 RMK A01 T00311052  RH  054%=      5-min Rain = 0
KAM2 091657Z 34003KT 03/M05 A3038 RMK A01 T00321052  RH  054%=      5-min Rain = 0
KAM2 091658Z 32002KT 03/M05 A3038 RMK A01 T00341051  RH  054%=      5-min Rain = 0
KAM2 091659Z 30006KT 03/M05 A3038 RMK A01 T00341052  RH  053%=      5-min Rain = 0
KAM2 091700Z 29005KT 03/M05 A3038 RMK A01 T00341054  RH  053%=      5-min Rain = 0
KAM2 091701Z 31005KT 03/M05 A3038 RMK A01 T00321054  RH  053%=      5-min Rain = 0
KAM2 091702Z 32004KT 03/M05 A3038 RMK A01 T00321053  RH  054%=      5-min Rain = 0
KAM2 091703Z 33006KT 03/M05 A3038 RMK A01 T00331052  RH  054%=      5-min Rain = 0
KAM2 091704Z 32005KT 04/M05 A3038 RMK A01 T00351050  RH  054%=      5-min Rain = 0
KAM2 091705Z 33004KT 04/M05 A3038 RMK A01 T00351051  RH  053%=      5-min Rain = 0
KAM2 091706Z 32006KT 04/M05 A3038 RMK A01 T00351051  RH  053%=      5-min Rain = 0
KAM2 091707Z 32005KT 04/M05 A3038 RMK A01 T00361051  RH  053%=      5-min Rain = 0
KAM2 091708Z 32005KT 04/M05 A3038 RMK A01 T00361052  RH  053%=      5-min Rain = 0
KAM2 091709Z 31006KT 04/M05 A3038 RMK A01 T00361051  RH  053%=      5-min Rain = 0
KAM2 091710Z 30005KT 04/M05 A3038 RMK A01 T00361052  RH  053%=      5-min Rain = 0
KAM2 091711Z 29005KT 04/M05 A3038 RMK A01 T00351052  RH  053%=      5-min Rain = 0
KAM2 091712Z 31003KT 04/M05 A3038 RMK A01 T00361051  RH  053%=      5-min Rain = 0
KAM2 091713Z 34005KT 04/M05 A3038 RMK A01 T00371051  RH  053%=      5-min Rain = 0
KAM2 091714Z 35005KT 04/M05 A3038 RMK A01 T00361051  RH  053%=      5-min Rain = 0
KAM2 091715Z 36006KT 04/M05 A3038 RMK A01 T00361051  RH  053%=      5-min Rain = 0
KAM2 091716Z 34004KT 04/M05 A3038 RMK A01 T00371050  RH  053%=      5-min Rain = 0
KAM2 091717Z 34004KT 04/M05 A3038 RMK A01 T00381047  RH  054%=      5-min Rain = 0
KAM2 091718Z 32003KT 04/M05 A3038 RMK A01 T00401046  RH  053%=      5-min Rain = 0
KAM2 091719Z 33004KT 04/M05 A3038 RMK A01 T00421046  RH  052%=      5-min Rain = 0
KAM2 091720Z 35004KT 04/M05 A3038 RMK A01 T00421047  RH  052%=      5-min Rain = 0
KAM2 091721Z 32005KT 04/M05 A3038 RMK A01 T00431047  RH  052%=      5-min Rain = 0
KAM2 091722Z 30005KT 04/M05 A3038 RMK A01 T00441047  RH  052%=      5-min Rain = 0
KAM2 091723Z 30003KT 04/M05 A3038 RMK A01 T00431047  RH  052%=      5-min Rain = 0
KAM2 091724Z 32001KT 04/M05 A3038 RMK A01 T00431047  RH  052%=      5-min Rain = 0
KAM2 091725Z 34005KT 04/M05 A3037 RMK A01 T00441045  RH  052%=      5-min Rain = 0
KAM2 091726Z 34005KT 05/M05 A3037 RMK A01 T00451046  RH  052%=      5-min Rain = 0
KAM2 091727Z 34003KT 04/M05 A3037 RMK A01 T00441048  RH  051%=      5-min Rain = 0
KAM2 091728Z 34002KT 04/M05 A3037 RMK A01 T00441047  RH  052%=      5-min Rain = 0
KAM2 091729Z 34004KT 04/M05 A3037 RMK A01 T00441046  RH  052%=      5-min Rain = 0
KAM2 091730Z 32004KT 05/M05 A3037 RMK A01 T00461046  RH  052%=      5-min Rain = 0
KAM2 091731Z 35003G8KT 05/M05 A3037 RMK A01 T00461046  RH  051%=      5-min Rain = 0
KAM2 091732Z 34006KT 05/M04 A3037 RMK A01 T00481043  RH  052%=      5-min Rain = 0
KAM2 091733Z 35007KT 05/M04 A3037 RMK A01 T00511042  RH  051%=      5-min Rain = 0
KAM2 091734Z 34007KT 05/M04 A3037 RMK A01 T00521043  RH  050%=      5-min Rain = 0
KAM2 091735Z 34005KT 05/M05 A3037 RMK A01 T00511045  RH  050%=      5-min Rain = 0
KAM2 091736Z 00003KT 05/M05 A3037 RMK A01 T00501046  RH  050%=      5-min Rain = 0
KAM2 091737Z 36004KT 05/M05 A3037 RMK A01 T00481046  RH  050%=      5-min Rain = 0
KAM2 091738Z 36005KT 05/M04 A3037 RMK A01 T00491044  RH  051%=      5-min Rain = 0
KAM2 091739Z 34005KT 05/M04 A3037 RMK A01 T00501044  RH  050%=      5-min Rain = 0
KAM2 091740Z 02004KT 05/M05 A3037 RMK A01 T00491046  RH  050%=      5-min Rain = 0
KAM2 091741Z 03005KT 05/M04 A3037 RMK A01 T00501044  RH  051%=      5-min Rain = 0
KAM2 091742Z 03004KT 05/M05 A3037 RMK A01 T00501045  RH  050%=      5-min Rain = 0
KAM2 091743Z 33004KT 05/M04 A3037 RMK A01 T00501044  RH  050%=      5-min Rain = 0
KAM2 091744Z 01002KT 05/M05 A3037 RMK A01 T00521045  RH  050%=      5-min Rain = 0
KAM2 091745Z 35006KT 05/M04 A3037 RMK A01 T00521044  RH  050%=      5-min Rain = 0
KAM2 091746Z 34004KT 05/M05 A3037 RMK A01 T00521046  RH  049%=      5-min Rain = 0
KAM2 091747Z 34002KT 05/M05 A3037 RMK A01 T00501047  RH  049%=      5-min Rain = 0
KAM2 091748Z 33005KT 05/M04 A3037 RMK A01 T00511043  RH  051%=      5-min Rain = 0
KAM2 091749Z 34006KT 05/M04 A3037 RMK A01 T00541042  RH  050%=      5-min Rain = 0
KAM2 091750Z 33006KT 06/M04 A3037 RMK A01 T00551042  RH  049%=      5-min Rain = 0
KAM2 091751Z 35007KT 06/M04 A3037 RMK A01 T00551043  RH  049%=      5-min Rain = 0
KAM2 091752Z 34006KT 05/M04 A3037 RMK A01 T00541043  RH  049%=      5-min Rain = 0
KAM2 091753Z 33005KT 05/M04 A3037 RMK A01 T00541044  RH  049%=      5-min Rain = 0
KAM2 091754Z 33004KT 05/M04 A3037 RMK A01 T00541044  RH  049%=      5-min Rain = 0
KAM2 091755Z 35003KT 05/M05 A3037 RMK A01 T00511046  RH  049%=      5-min Rain = 0
KAM2 091756Z 35003KT 05/M05 A3037 RMK A01 T00501045  RH  050%=      5-min Rain = 0
KAM2 091757Z 01001KT 05/M05 A3037 RMK A01 T00501045  RH  050%=      5-min Rain = 0
KAM2 091758Z 02001KT 05/M05 A3037 RMK A01 T00511045  RH  050%=      5-min Rain = 0
KAM2 091759Z 35002KT 05/M04 A3037 RMK A01 T00531042  RH  050%=      5-min Rain = 0
KAM2 091800Z 01005KT 06/M04 A3037 RMK A01 T00561040  RH  050%=      5-min Rain = 0
KAM2 091801Z 02004KT 06/M04 A3037 RMK A01 T00571042  RH  049%=      5-min Rain = 0
KAM2 091802Z 02005KT 06/M04 A3037 RMK A01 T00571041  RH  049%=      5-min Rain = 0
KAM2 091803Z 04005KT 06/M04 A3037 RMK A01 T00601040  RH  049%=      5-min Rain = 0
KAM2 091804Z 05005KT 06/M04 A3036 RMK A01 T00601041  RH  048%=      5-min Rain = 0
KAM2 091805Z 03004KT 06/M04 A3036 RMK A01 T00591042  RH  048%=      5-min Rain = 0
KAM2 091806Z 04005KT 06/M04 A3036 RMK A01 T00611040  RH  048%=      5-min Rain = 0
KAM2 091807Z 01005KT 06/M04 A3036 RMK A01 T00611043  RH  047%=      5-min Rain = 0
KAM2 091808Z 02004KT 06/M04 A3036 RMK A01 T00601044  RH  047%=      5-min Rain = 0
KAM2 091809Z 01007KT 06/M04 A3036 RMK A01 T00601042  RH  048%=      5-min Rain = 0
KAM2 091810Z 01007KT 06/M04 A3036 RMK A01 T00611042  RH  048%=      5-min Rain = 0
KAM2 091811Z 03005KT 06/M04 A3036 RMK A01 T00611043  RH  047%=      5-min Rain = 0
KAM2 091812Z 03004KT 06/M04 A3036 RMK A01 T00601043  RH  047%=      5-min Rain = 0
KAM2 091813Z 35005KT 06/M04 A3036 RMK A01 T00611042  RH  047%=      5-min Rain = 0
KAM2 091814Z 00005KT 06/M04 A3036 RMK A01 T00631041  RH  047%=      5-min Rain = 0
KAM2 091815Z 00004KT 07/M04 A3036 RMK A01 T00661041  RH  047%=      5-min Rain = 0
KAM2 091816Z 04004KT 07/M04 A3036 RMK A01 T00651043  RH  046%=      5-min Rain = 0
KAM2 091817Z 05004KT 06/M05 A3036 RMK A01 T00641045  RH  046%=      5-min Rain = 0
KAM2 091818Z 04004KT 06/M04 A3036 RMK A01 T00631044  RH  046%=      5-min Rain = 0
KAM2 091819Z 01005KT 07/M04 A3036 RMK A01 T00651043  RH  046%=      5-min Rain = 0
KAM2 091820Z 00007KT 07/M04 A3035 RMK A01 T00661042  RH  046%=      5-min Rain = 0
KAM2 091821Z 36007KT 07/M04 A3035 RMK A01 T00671043  RH  045%=      5-min Rain = 0
KAM2 091822Z 35006KT 07/M04 A3035 RMK A01 T00661044  RH  045%=      5-min Rain = 0
KAM2 091823Z 34003KT 07/M05 A3035 RMK A01 T00651045  RH  045%=      5-min Rain = 0
KAM2 091824Z 35005KT 06/M05 A3035 RMK A01 T00641045  RH  046%=      5-min Rain = 0
KAM2 091825Z 35004KT 06/M05 A3035 RMK A01 T00641045  RH  046%=      5-min Rain = 0
KAM2 091826Z 02003KT 07/M04 A3035 RMK A01 T00651043  RH  046%=      5-min Rain = 0
KAM2 091827Z 36003KT 07/M05 A3035 RMK A01 T00651045  RH  045%=      5-min Rain = 0
KAM2 091828Z 36005KT 07/M05 A3035 RMK A01 T00651045  RH  045%=      5-min Rain = 0
KAM2 091829Z 02005KT 07/M05 A3035 RMK A01 T00651048  RH  044%=      5-min Rain = 0
KAM2 091830Z 36005KT 07/M05 A3035 RMK A01 T00661046  RH  044%=      5-min Rain = 0
KAM2 091831Z 33006KT 07/M04 A3035 RMK A01 T00681044  RH  044%=      5-min Rain = 0
KAM2 091832Z 35005KT 07/M05 A3034 RMK A01 T00671046  RH  044%=      5-min Rain = 0
KAM2 091833Z 03005KT 07/M05 A3034 RMK A01 T00661047  RH  044%=      5-min Rain = 0
KAM2 091834Z 02004KT 07/M05 A3034 RMK A01 T00661047  RH  044%=      5-min Rain = 0
KAM2 091835Z 03003KT 07/M05 A3034 RMK A01 T00671048  RH  044%=      5-min Rain = 0
KAM2 091836Z 02005KT 07/M05 A3034 RMK A01 T00681046  RH  044%=      5-min Rain = 0
KAM2 091837Z 01006KT 07/M05 A3034 RMK A01 T00691048  RH  043%=      5-min Rain = 0
KAM2 091838Z 03006KT 07/M05 A3034 RMK A01 T00671049  RH  043%=      5-min Rain = 0
KAM2 091839Z 04005KT 07/M05 A3034 RMK A01 T00661049  RH  044%=      5-min Rain = 0
KAM2 091840Z 03004KT 07/M05 A3034 RMK A01 T00671046  RH  044%=      5-min Rain = 0
KAM2 091841Z 02005G10KT 07/M05 A3034 RMK A01 T00681047  RH  044%=      5-min Rain = 0
KAM2 091842Z 02007KT 07/M05 A3034 RMK A01 T00691048  RH  043%=      5-min Rain = 0
KAM2 091843Z 36005KT 07/M05 A3034 RMK A01 T00671049  RH  043%=      5-min Rain = 0
KAM2 091844Z 01005KT 07/M05 A3034 RMK A01 T00681047  RH  044%=      5-min Rain = 0
KAM2 091845Z 36005KT 07/M05 A3034 RMK A01 T00681048  RH  043%=      5-min Rain = 0
KAM2 091846Z 00003KT 07/M05 A3034 RMK A01 T00681047  RH  044%=      5-min Rain = 0
KAM2 091847Z 33001KT 07/M05 A3034 RMK A01 T00681046  RH  044%=      5-min Rain = 0
KAM2 091848Z 01001KT 07/M05 A3034 RMK A01 T00671048  RH  044%=      5-min Rain = 0
KAM2 091849Z 01003KT 07/M05 A3034 RMK A01 T00671047  RH  044%=      5-min Rain = 0
KAM2 091850Z 00006KT 07/M05 A3034 RMK A01 T00691049  RH  043%=      5-min Rain = 0
KAM2 091851Z 01005KT 07/M05 A3034 RMK A01 T00691052  RH  042%=      5-min Rain = 0
KAM2 091852Z 04004KT 07/M05 A3034 RMK A01 T00691051  RH  042%=      5-min Rain = 0
KAM2 091853Z 36003KT 07/M05 A3034 RMK A01 T00711051  RH  042%=      5-min Rain = 0
KAM2 091854Z 35006KT 07/M05 A3034 RMK A01 T00711050  RH  042%=      5-min Rain = 0
KAM2 091855Z 35006KT 07/M05 A3034 RMK A01 T00721050  RH  041%=      5-min Rain = 0
KAM2 091856Z 34005KT 07/M05 A3034 RMK A01 T00711052  RH  041%=      5-min Rain = 0
KAM2 091857Z 34004KT 07/M05 A3034 RMK A01 T00701054  RH  041%=      5-min Rain = 0
KAM2 091858Z 34004KT 07/M05 A3034 RMK A01 T00691053  RH  041%=      5-min Rain = 0
KAM2 091859Z 35005KT 07/M05 A3033 RMK A01 T00711050  RH  042%=      5-min Rain = 0
KAM2 091900Z 33005KT 07/M05 A3033 RMK A01 T00731050  RH  041%=      5-min Rain = 0
KAM2 091901Z 32003KT 07/M05 A3033 RMK A01 T00731053  RH  040%=      5-min Rain = 0
KAM2 091902Z 02003KT 07/M05 A3033 RMK A01 T00731052  RH  041%=      5-min Rain = 0
KAM2 091903Z 02006KT 07/M05 A3033 RMK A01 T00741050  RH  041%=      5-min Rain = 0
KAM2 091904Z 01005KT 07/M05 A3033 RMK A01 T00741054  RH  040%=      5-min Rain = 0
KAM2 091905Z 01004KT 07/M06 A3033 RMK A01 T00741057  RH  039%=      5-min Rain = 0
KAM2 091906Z 01003KT 07/M06 A3033 RMK A01 T00711058  RH  039%=      5-min Rain = 0
KAM2 091907Z 04003KT 07/M06 A3033 RMK A01 T00701055  RH  041%=      5-min Rain = 0
KAM2 091908Z 01005KT 07/M05 A3033 RMK A01 T00721053  RH  041%=      5-min Rain = 0
KAM2 091909Z 02005KT 07/M05 A3033 RMK A01 T00731054  RH  040%=      5-min Rain = 0
KAM2 091910Z 03004KT 07/M05 A3033 RMK A01 T00731053  RH  040%=      5-min Rain = 0
KAM2 091911Z 05003KT 07/M05 A3033 RMK A01 T00711053  RH  041%=      5-min Rain = 0
KAM2 091912Z 35002KT 07/M05 A3033 RMK A01 T00701052  RH  042%=      5-min Rain = 0
KAM2 091913Z 34004KT 07/M05 A3033 RMK A01 T00711051  RH  042%=      5-min Rain = 0
KAM2 091914Z 33005KT 07/M05 A3033 RMK A01 T00721050  RH  042%=      5-min Rain = 0
KAM2 091915Z 33004KT 07/M05 A3033 RMK A01 T00741048  RH  041%=      5-min Rain = 0
KAM2 091916Z 30002KT 08/M05 A3033 RMK A01 T00751050  RH  041%=      5-min Rain = 0
KAM2 091917Z 30002KT 07/M05 A3033 RMK A01 T00741049  RH  041%=      5-min Rain = 0
KAM2 091918Z 32001KT 08/M05 A3033 RMK A01 T00751050  RH  041%=      5-min Rain = 0
KAM2 091919Z 03002KT 07/M05 A3033 RMK A01 T00741051  RH  041%=      5-min Rain = 0
KAM2 091920Z 04004KT 08/M05 A3033 RMK A01 T00761054  RH  039%=      5-min Rain = 0
KAM2 091921Z 01004KT 08/M05 A3033 RMK A01 T00781054  RH  039%=      5-min Rain = 0
KAM2 091922Z 01005KT 08/M05 A3033 RMK A01 T00791054  RH  038%=      5-min Rain = 0
KAM2 091923Z 03005KT 08/M06 A3033 RMK A01 T00801056  RH  038%=      5-min Rain = 0
KAM2 091924Z 02003KT 08/M06 A3033 RMK A01 T00781056  RH  038%=      5-min Rain = 0
KAM2 091925Z 01005KT 08/M06 A3033 RMK A01 T00781058  RH  038%=      5-min Rain = 0
KAM2 091926Z 36005KT 08/M06 A3033 RMK A01 T00781057  RH  038%=      5-min Rain = 0
KAM2 091927Z 34004KT 08/M06 A3033 RMK A01 T00791057  RH  037%=      5-min Rain = 0
KAM2 091928Z 00002KT 08/M06 A3033 RMK A01 T00801055  RH  038%=      5-min Rain = 0
KAM2 091929Z 05003KT 08/M06 A3033 RMK A01 T00811056  RH  037%=      5-min Rain = 0
KAM2 091930Z 06005KT 08/M06 A3032 RMK A01 T00811057  RH  037%=      5-min Rain = 0
KAM2 091931Z 05004KT 08/M06 A3032 RMK A01 T00811057  RH  037%=      5-min Rain = 0
KAM2 091932Z 04004KT 08/M06 A3032 RMK A01 T00811058  RH  037%=      5-min Rain = 0
KAM2 091933Z 04005KT 08/M06 A3032 RMK A01 T00811058  RH  037%=      5-min Rain = 0
KAM2 091934Z 01004KT 08/M06 A3032 RMK A01 T00801058  RH  037%=      5-min Rain = 0
KAM2 091935Z 01005KT 08/M06 A3032 RMK A01 T00811061  RH  036%=      5-min Rain = 0
KAM2 091936Z 00005KT 08/M06 A3032 RMK A01 T00801062  RH  036%=      5-min Rain = 0
KAM2 091937Z 01005KT 08/M06 A3032 RMK A01 T00801062  RH  036%=      5-min Rain = 0
KAM2 091938Z 02003KT 08/M06 A3032 RMK A01 T00801063  RH  036%=      5-min Rain = 0
KAM2 091939Z 03002KT 08/M06 A3032 RMK A01 T00811063  RH  035%=      5-min Rain = 0
KAM2 091940Z 01002KT 08/M06 A3032 RMK A01 T00801063  RH  036%=      5-min Rain = 0
KAM2 091941Z 05003KT 08/M06 A3032 RMK A01 T00811062  RH  036%=      5-min Rain = 0
KAM2 091942Z 03003KT 08/M06 A3032 RMK A01 T00821063  RH  035%=      5-min Rain = 0
KAM2 091943Z 01004KT 08/M06 A3032 RMK A01 T00831064  RH  035%=      5-min Rain = 0
KAM2 091944Z 36003KT 08/M06 A3032 RMK A01 T00841063  RH  035%=      5-min Rain = 0
KAM2 091945Z 35002KT 09/M06 A3032 RMK A01 T00851061  RH  035%=      5-min Rain = 0
KAM2 091946Z 34003KT 09/M06 A3032 RMK A01 T00851061  RH  035%=      5-min Rain = 0
KAM2 091947Z 02002KT 09/M06 A3032 RMK A01 T00851058  RH  036%=      5-min Rain = 0
KAM2 091948Z 04003KT 09/M06 A3032 RMK A01 T00871058  RH  035%=      5-min Rain = 0
KAM2 091949Z 32004KT 09/M06 A3032 RMK A01 T00871059  RH  035%=      5-min Rain = 0
KAM2 091950Z 32005KT 09/M06 A3032 RMK A01 T00881060  RH  035%=      5-min Rain = 0
KAM2 091951Z 35005KT 09/M06 A3032 RMK A01 T00871063  RH  034%=      5-min Rain = 0
KAM2 091952Z 00006KT 09/M07 A3032 RMK A01 T00871065  RH  033%=      5-min Rain = 0
KAM2 091953Z 35006KT 09/M07 A3032 RMK A01 T00851065  RH  034%=      5-min Rain = 0
KAM2 091954Z 34006KT 09/M07 A3032 RMK A01 T00851066  RH  034%=      5-min Rain = 0
KAM2 091955Z 33005KT 09/M07 A3032 RMK A01 T00851065  RH  034%=      5-min Rain = 0
KAM2 091956Z 34004KT 09/M06 A3031 RMK A01 T00861064  RH  034%=      5-min Rain = 0
KAM2 091957Z 02004KT 09/M06 A3032 RMK A01 T00871064  RH  034%=      5-min Rain = 0
KAM2 091958Z 02002KT 09/M06 A3031 RMK A01 T00861064  RH  034%=      5-min Rain = 0
KAM2 091959Z 04003KT 09/M06 A3031 RMK A01 T00861061  RH  035%=      5-min Rain = 0
KAM2 092000Z 04003KT 09/M06 A3031 RMK A01 T00871061  RH  035%=      5-min Rain = 0
KAM2 092001Z 00003KT 09/M06 A3031 RMK A01 T00891059  RH  035%=      5-min Rain = 0
KAM2 092002Z 35007KT 09/M06 A3031 RMK A01 T00901061  RH  034%=      5-min Rain = 0
KAM2 092003Z 34005KT 09/M06 A3031 RMK A01 T00911061  RH  034%=      5-min Rain = 0
KAM2 092004Z 33005KT 09/M06 A3031 RMK A01 T00911062  RH  033%=      5-min Rain = 0
KAM2 092005Z 01005KT 09/M06 A3031 RMK A01 T00911062  RH  033%=      5-min Rain = 0
KAM2 092006Z 03003KT 09/M07 A3031 RMK A01 T00921065  RH  033%=      5-min Rain = 0
KAM2 092007Z 02003KT 09/M07 A3031 RMK A01 T00911066  RH  032%=      5-min Rain = 0
KAM2 092008Z 34002KT 09/M07 A3031 RMK A01 T00891068  RH  032%=      5-min Rain = 0
KAM2 092009Z 34004KT 09/M07 A3031 RMK A01 T00891065  RH  033%=      5-min Rain = 0
KAM2 092010Z 33005KT 09/M07 A3031 RMK A01 T00901065  RH  033%=      5-min Rain = 0
KAM2 092011Z 33005KT 09/M07 A3031 RMK A01 T00901067  RH  032%=      5-min Rain = 0
KAM2 092012Z 30003KT 09/M07 A3031 RMK A01 T00891069  RH  032%=      5-min Rain = 0
KAM2 092013Z 02005KT 09/M07 A3031 RMK A01 T00901065  RH  033%=      5-min Rain = 0
KAM2 092014Z 01007KT 09/M06 A3031 RMK A01 T00941062  RH  033%=      5-min Rain = 0
KAM2 092015Z 34006KT 10/M06 A3031 RMK A01 T00961064  RH  032%=      5-min Rain = 0
KAM2 092016Z 00006KT 10/M07 A3031 RMK A01 T00961068  RH  031%=      5-min Rain = 0
KAM2 092017Z 00005KT 09/M07 A3031 RMK A01 T00941072  RH  030%=      5-min Rain = 0
KAM2 092018Z 33003KT 09/M08 A3031 RMK A01 T00911075  RH  030%=      5-min Rain = 0
KAM2 092019Z 35003KT 09/M08 A3031 RMK A01 T00901075  RH  030%=      5-min Rain = 0
KAM2 092020Z 30001KT 09/M08 A3031 RMK A01 T00891075  RH  031%=      5-min Rain = 0
KAM2 092021Z 04000KT 09/M08 A3031 RMK A01 T00891075  RH  031%=      5-min Rain = 0
KAM2 092022Z 35002KT 09/M07 A3031 RMK A01 T00911072  RH  031%=      5-min Rain = 0
KAM2 092023Z 36001KT 09/M07 A3031 RMK A01 T00931074  RH  030%=      5-min Rain = 0
KAM2 092024Z 01005KT 09/M07 A3031 RMK A01 T00941074  RH  030%=      5-min Rain = 0
KAM2 092025Z 01008KT 10/M07 A3031 RMK A01 T00951073  RH  030%=      5-min Rain = 0
KAM2 092026Z 02007KT 10/M07 A3031 RMK A01 T00951073  RH  030%=      5-min Rain = 0
KAM2 092027Z 03006KT 09/M07 A3031 RMK A01 T00941074  RH  030%=      5-min Rain = 0
KAM2 092028Z 03003KT 09/M08 A3031 RMK A01 T00921076  RH  030%=      5-min Rain = 0
KAM2 092029Z 34006KT 09/M08 A3031 RMK A01 T00931075  RH  030%=      5-min Rain = 0
KAM2 092030Z 33005KT 09/M08 A3031 RMK A01 T00941076  RH  029%=      5-min Rain = 0
KAM2 092031Z 34005KT 10/M08 A3031 RMK A01 T00951076  RH  029%=      5-min Rain = 0
KAM2 092032Z 01006KT 10/M08 A3031 RMK A01 T00971075  RH  029%=      5-min Rain = 0
KAM2 092033Z 02005KT 10/M08 A3031 RMK A01 T00971076  RH  029%=      5-min Rain = 0
KAM2 092034Z 02004KT 10/M08 A3031 RMK A01 T00971077  RH  028%=      5-min Rain = 0
KAM2 092035Z 01005KT 10/M08 A3031 RMK A01 T00961076  RH  029%=      5-min Rain = 0
KAM2 092036Z 01003KT 10/M08 A3031 RMK A01 T00961078  RH  029%=      5-min Rain = 0
KAM2 092037Z 05005KT 10/M08 A3031 RMK A01 T00961078  RH  029%=      5-min Rain = 0
KAM2 092038Z 07004KT 10/M08 A3031 RMK A01 T00961077  RH  029%=      5-min Rain = 0
KAM2 092039Z 09003KT 10/M08 A3031 RMK A01 T00961077  RH  029%=      5-min Rain = 0
KAM2 092040Z 07002KT 10/M08 A3031 RMK A01 T00951078  RH  029%=      5-min Rain = 0
KAM2 092041Z 03001KT 10/M08 A3031 RMK A01 T00951077  RH  029%=      5-min Rain = 0
KAM2 092042Z 34003KT 10/M08 A3031 RMK A01 T00961077  RH  029%=      5-min Rain = 0
KAM2 092043Z 31002KT 10/M08 A3031 RMK A01 T00961077  RH  029%=      5-min Rain = 0
KAM2 092044Z 34004KT 10/M08 A3031 RMK A01 T00971077  RH  028%=      5-min Rain = 0
KAM2 092045Z 01002KT 10/M08 A3031 RMK A01 T00981077  RH  028%=      5-min Rain = 0
KAM2 092046Z 36005KT 10/M08 A3031 RMK A01 T00981076  RH  028%=      5-min Rain = 0
KAM2 092047Z 02008KT 10/M08 A3031 RMK A01 T00991077  RH  028%=      5-min Rain = 0
KAM2 092048Z 03008KT 10/M08 A3031 RMK A01 T01001078  RH  028%=      5-min Rain = 0
KAM2 092049Z 03005KT 10/M08 A3031 RMK A01 T00991078  RH  028%=      5-min Rain = 0
KAM2 092050Z 01005KT 10/M08 A3031 RMK A01 T01001077  RH  028%=      5-min Rain = 0
KAM2 092051Z 03007KT 10/M08 A3031 RMK A01 T01011077  RH  028%=      5-min Rain = 0
KAM2 092052Z 03008KT 10/M08 A3031 RMK A01 T01021080  RH  027%=      5-min Rain = 0
KAM2 092053Z 02006KT 10/M08 A3031 RMK A01 T00991082  RH  027%=      5-min Rain = 0
KAM2 092054Z 02007KT 10/M08 A3031 RMK A01 T00981082  RH  027%=      5-min Rain = 0
KAM2 092055Z 03005KT 10/M08 A3031 RMK A01 T00981081  RH  028%=      5-min Rain = 0
KAM2 092056Z 03005KT 10/M08 A3031 RMK A01 T00981079  RH  028%=      5-min Rain = 0
KAM2 092057Z 01004KT 10/M08 A3031 RMK A01 T00981078  RH  028%=      5-min Rain = 0
KAM2 092058Z 36004KT 10/M08 A3031 RMK A01 T00991078  RH  028%=      5-min Rain = 0
KAM2 092059Z 34004KT 10/M08 A3031 RMK A01 T01001077  RH  028%=      5-min Rain = 0
KAM2 092100Z 34002KT 10/M08 A3031 RMK A01 T00991078  RH  028%=      5-min Rain = 0
KAM2 092101Z 01004KT 10/M08 A3031 RMK A01 T00991077  RH  028%=      5-min Rain = 0
KAM2 092102Z 36005KT 10/M08 A3031 RMK A01 T00991077  RH  028%=      5-min Rain = 0
KAM2 092103Z 01006KT 10/M08 A3031 RMK A01 T01011075  RH  028%=      5-min Rain = 0
KAM2 092104Z 36006KT 10/M08 A3031 RMK A01 T01011075  RH  028%=      5-min Rain = 0
KAM2 092105Z 00005KT 10/M08 A3031 RMK A01 T01011076  RH  028%=      5-min Rain = 0
KAM2 092106Z 02003KT 10/M08 A3031 RMK A01 T00991079  RH  028%=      5-min Rain = 0
KAM2 092107Z 35005KT 10/M08 A3031 RMK A01 T00971078  RH  028%=      5-min Rain = 0
KAM2 092108Z 00007KT 10/M08 A3031 RMK A01 T00981077  RH  028%=      5-min Rain = 0
KAM2 092109Z 05005KT 10/M08 A3031 RMK A01 T01001076  RH  028%=      5-min Rain = 0
KAM2 092110Z 03006KT 10/M08 A3031 RMK A01 T01011075  RH  028%=      5-min Rain = 0
KAM2 092111Z 02006KT 10/M08 A3031 RMK A01 T01011080  RH  027%=      5-min Rain = 0
KAM2 092112Z 04005KT 10/M08 A3031 RMK A01 T01001081  RH  027%=      5-min Rain = 0
KAM2 092113Z 04005KT 10/M08 A3031 RMK A01 T01011081  RH  027%=      5-min Rain = 0
KAM2 092114Z 04004KT 10/M08 A3031 RMK A01 T01001081  RH  027%=      5-min Rain = 0
KAM2 092115Z 03002KT 10/M08 A3031 RMK A01 T01001080  RH  027%=      5-min Rain = 0
KAM2 092116Z 03003KT 10/M08 A3031 RMK A01 T00981079  RH  028%=      5-min Rain = 0
KAM2 092117Z 03004KT 10/M08 A3031 RMK A01 T00991079  RH  028%=      5-min Rain = 0
KAM2 092118Z 02003KT 10/M08 A3031 RMK A01 T00991082  RH  027%=      5-min Rain = 0
KAM2 092119Z 01002KT 10/M08 A303 RMK A01 T00991082  RH  027%=      5-min Rain = 0
KAM2 092120Z 36003KT 10/M08 A303 RMK A01 T00991081  RH  027%=      5-min Rain = 0
KAM2 092121Z 01005KT 10/M08 A303 RMK A01 T01011079  RH  027%=      5-min Rain = 0
KAM2 092122Z 01006KT 10/M08 A303 RMK A01 T01021081  RH  027%=      5-min Rain = 0
KAM2 092123Z 01007KT 10/M08 A303 RMK A01 T01021081  RH  027%=      5-min Rain = 0
KAM2 092124Z 02006KT 10/M08 A303 RMK A01 T01031080  RH  027%=      5-min Rain = 0
KAM2 092125Z 05007KT 10/M08 A303 RMK A01 T01041079  RH  027%=      5-min Rain = 0
KAM2 092126Z 04006KT 10/M08 A303 RMK A01 T01041080  RH  026%=      5-min Rain = 0
KAM2 092127Z 03007KT 10/M08 A303 RMK A01 T01041081  RH  026%=      5-min Rain = 0
KAM2 092128Z 03004KT 10/M09 A303 RMK A01 T01031086  RH  026%=      5-min Rain = 0
KAM2 092129Z 04002KT 10/M09 A303 RMK A01 T01011087  RH  026%=      5-min Rain = 0
KAM2 092130Z 03005KT 10/M09 A303 RMK A01 T01021085  RH  026%=      5-min Rain = 0
KAM2 092131Z 03003KT 10/M09 A303 RMK A01 T01021087  RH  026%=      5-min Rain = 0
KAM2 092132Z 02005KT 10/M09 A303 RMK A01 T01031085  RH  026%=      5-min Rain = 0
KAM2 092133Z 03007KT 10/M09 A303 RMK A01 T01041086  RH  025%=      5-min Rain = 0
KAM2 092134Z 02007KT 11/M09 A303 RMK A01 T01051087  RH  025%=      5-min Rain = 0
KAM2 092135Z 02007KT 11/M09 A303 RMK A01 T01051087  RH  025%=      5-min Rain = 0
KAM2 092136Z 04006KT 11/M09 A303 RMK A01 T01051086  RH  025%=      5-min Rain = 0
KAM2 092137Z 04006KT 10/M09 A303 RMK A01 T01041087  RH  025%=      5-min Rain = 0
KAM2 092138Z 05006KT 10/M09 A303 RMK A01 T01041086  RH  025%=      5-min Rain = 0
KAM2 092139Z 03006KT 11/M08 A303 RMK A01 T01051084  RH  026%=      5-min Rain = 0
KAM2 092140Z 03007KT 11/M09 A303 RMK A01 T01061085  RH  025%=      5-min Rain = 0
KAM2 092141Z 04006KT 11/M09 A303 RMK A01 T01051086  RH  025%=      5-min Rain = 0
KAM2 092142Z 03005KT 11/M09 A303 RMK A01 T01061085  RH  025%=      5-min Rain = 0
KAM2 092143Z 01006KT 11/M09 A303 RMK A01 T01071085  RH  025%=      5-min Rain = 0
KAM2 092144Z 34004KT 11/M09 A303 RMK A01 T01071086  RH  025%=      5-min Rain = 0
KAM2 092145Z 05007KT 11/M08 A303 RMK A01 T01071084  RH  025%=      5-min Rain = 0
KAM2 092146Z 05007KT 11/M09 A303 RMK A01 T01071086  RH  025%=      5-min Rain = 0
KAM2 092147Z 04004KT 11/M08 A303 RMK A01 T01071083  RH  025%=      5-min Rain = 0
KAM2 092148Z 02006KT 11/M08 A303 RMK A01 T01071083  RH  025%=      5-min Rain = 0
KAM2 092149Z 03005KT 11/M08 A303 RMK A01 T01061083  RH  026%=      5-min Rain = 0
KAM2 092150Z 04004KT 11/M08 A303 RMK A01 T01061083  RH  026%=      5-min Rain = 0
KAM2 092151Z 08003KT 10/M08 A303 RMK A01 T01041083  RH  026%=      5-min Rain = 0
KAM2 092152Z 08004KT 11/M08 A303 RMK A01 T01051081  RH  026%=      5-min Rain = 0
KAM2 092153Z 08006KT 11/M08 A303 RMK A01 T01061079  RH  026%=      5-min Rain = 0
KAM2 092154Z 08007KT 11/M08 A303 RMK A01 T01071080  RH  026%=      5-min Rain = 0
KAM2 092155Z 05007KT 11/M08 A303 RMK A01 T01071079  RH  026%=      5-min Rain = 0
KAM2 092156Z 04008KT 11/M08 A303 RMK A01 T01071081  RH  026%=      5-min Rain = 0
KAM2 092157Z 05008KT 11/M08 A303 RMK A01 T01061081  RH  026%=      5-min Rain = 0
KAM2 092158Z 05007KT 11/M08 A303 RMK A01 T01061082  RH  026%=      5-min Rain = 0
KAM2 092159Z 05007KT 11/M08 A303 RMK A01 T01051082  RH  026%=      5-min Rain = 0
KAM2 092200Z 05006KT 10/M08 A303 RMK A01 T01041082  RH  026%=      5-min Rain = 0
KAM2 092201Z 05006KT 10/M08 A303 RMK A01 T01031082  RH  026%=      5-min Rain = 0
KAM2 092202Z 05005KT 10/M08 A303 RMK A01 T01021081  RH  027%=      5-min Rain = 0
KAM2 092203Z 05004KT 10/M08 A303 RMK A01 T01021079  RH  027%=      5-min Rain = 0
KAM2 092204Z 04002KT 10/M08 A303 RMK A01 T01021079  RH  027%=      5-min Rain = 0
KAM2 092205Z 08003KT 10/M08 A303 RMK A01 T01021079  RH  027%=      5-min Rain = 0
KAM2 092206Z 08005KT 10/M08 A303 RMK A01 T01021080  RH  027%=      5-min Rain = 0
KAM2 092207Z 05005KT 10/M08 A303 RMK A01 T01011079  RH  027%=      5-min Rain = 0
KAM2 092208Z 05005KT 10/M08 A303 RMK A01 T01011078  RH  027%=      5-min Rain = 0
KAM2 092209Z 06006KT 10/M08 A303 RMK A01 T01021078  RH  027%=      5-min Rain = 0
KAM2 092210Z 05005KT 10/M08 A303 RMK A01 T01021078  RH  027%=      5-min Rain = 0
KAM2 092211Z 05005KT 10/M08 A303 RMK A01 T01031077  RH  027%=      5-min Rain = 0
KAM2 092212Z 05007KT 10/M08 A303 RMK A01 T01031078  RH  027%=      5-min Rain = 0
KAM2 092213Z 05007KT 10/M08 A303 RMK A01 T01031078  RH  027%=      5-min Rain = 0
KAM2 092214Z 04005KT 10/M08 A303 RMK A01 T01031079  RH  027%=      5-min Rain = 0
KAM2 092215Z 04007KT 10/M08 A3031 RMK A01 T01031078  RH  027%=      5-min Rain = 0
KAM2 092216Z 04006KT 10/M08 A3031 RMK A01 T01021078  RH  027%=      5-min Rain = 0
KAM2 092217Z 05006KT 10/M08 A3031 RMK A01 T01021077  RH  028%=      5-min Rain = 0
KAM2 092218Z 05006KT 10/M08 A3031 RMK A01 T01021077  RH  028%=      5-min Rain = 0
KAM2 092219Z 05007KT 10/M08 A3031 RMK A01 T01021078  RH  027%=      5-min Rain = 0
KAM2 092220Z 05006KT 10/M08 A3031 RMK A01 T01021078  RH  027%=      5-min Rain = 0
KAM2 092221Z 04008KT 10/M08 A3031 RMK A01 T01011079  RH  027%=      5-min Rain = 0
KAM2 092222Z 05007KT 10/M08 A3031 RMK A01 T01001079  RH  027%=      5-min Rain = 0
KAM2 092223Z 03007KT 10/M08 A3031 RMK A01 T01001079  RH  028%=      5-min Rain = 0
KAM2 092224Z 03006KT 10/M08 A3031 RMK A01 T01001077  RH  028%=      5-min Rain = 0
KAM2 092225Z 03008KT 10/M08 A3031 RMK A01 T01001078  RH  028%=      5-min Rain = 0
KAM2 092226Z 03007KT 10/M08 A3031 RMK A01 T01001078  RH  028%=      5-min Rain = 0
KAM2 092227Z 04008KT 10/M08 A3031 RMK A01 T01001079  RH  028%=      5-min Rain = 0
KAM2 092228Z 04007KT 10/M08 A3031 RMK A01 T00981080  RH  028%=      5-min Rain = 0
KAM2 092229Z 03007KT 10/M08 A3031 RMK A01 T00981080  RH  028%=      5-min Rain = 0
KAM2 092230Z 02007KT 10/M08 A3031 RMK A01 T00981079  RH  028%=      5-min Rain = 0
KAM2 092231Z 03007KT 10/M08 A3031 RMK A01 T00981079  RH  028%=      5-min Rain = 0
KAM2 092232Z 03007KT 10/M08 A3031 RMK A01 T00981080  RH  028%=      5-min Rain = 0
KAM2 092233Z 03007KT 10/M08 A3031 RMK A01 T00981079  RH  028%=      5-min Rain = 0
KAM2 092234Z 04006KT 10/M08 A3031 RMK A01 T00971080  RH  028%=      5-min Rain = 0
KAM2 092235Z 04005KT 10/M08 A3031 RMK A01 T00971080  RH  028%=      5-min Rain = 0
KAM2 092236Z 03004KT 10/M08 A3031 RMK A01 T00971078  RH  028%=      5-min Rain = 0
KAM2 092237Z 03006KT 10/M08 A3031 RMK A01 T00971078  RH  028%=      5-min Rain = 0
KAM2 092238Z 03006KT 10/M08 A3031 RMK A01 T00981078  RH  028%=      5-min Rain = 0
KAM2 092239Z 03007KT 10/M08 A3031 RMK A01 T00971079  RH  028%=      5-min Rain = 0
KAM2 092240Z 04006KT 10/M08 A3031 RMK A01 T00971079  RH  028%=      5-min Rain = 0
KAM2 092241Z 04007KT 10/M08 A3031 RMK A01 T00971078  RH  028%=      5-min Rain = 0
KAM2 092242Z 04007KT 10/M08 A3031 RMK A01 T00961080  RH  028%=      5-min Rain = 0
KAM2 092243Z 04005KT 10/M08 A3031 RMK A01 T00951081  RH  028%=      5-min Rain = 0
KAM2 092244Z 04004KT 10/M08 A3031 RMK A01 T00951080  RH  028%=      5-min Rain = 0
KAM2 092245Z 03005KT 10/M08 A3031 RMK A01 T00951079  RH  028%=      5-min Rain = 0
KAM2 092246Z 04005KT 10/M08 A3032 RMK A01 T00951079  RH  028%=      5-min Rain = 0
KAM2 092247Z 04005KT 10/M08 A3032 RMK A01 T00951080  RH  028%=      5-min Rain = 0
KAM2 092248Z 05006KT 10/M08 A3032 RMK A01 T00951079  RH  029%=      5-min Rain = 0
KAM2 092249Z 05007KT 10/M08 A3032 RMK A01 T00951078  RH  029%=      5-min Rain = 0
KAM2 092250Z 05007KT 09/M08 A3032 RMK A01 T00941078  RH  029%=      5-min Rain = 0
KAM2 092251Z 06006KT 09/M08 A3031 RMK A01 T00931078  RH  029%=      5-min Rain = 0
KAM2 092252Z 06006KT 09/M08 A3031 RMK A01 T00931077  RH  029%=      5-min Rain = 0
KAM2 092253Z 06005KT 09/M08 A3031 RMK A01 T00921077  RH  029%=      5-min Rain = 0
KAM2 092254Z 06006KT 09/M08 A3031 RMK A01 T00921078  RH  029%=      5-min Rain = 0
KAM2 092255Z 06005KT 09/M08 A3031 RMK A01 T00921079  RH  029%=      5-min Rain = 0
KAM2 092256Z 05005KT 09/M08 A3032 RMK A01 T00911079  RH  029%=      5-min Rain = 0
KAM2 092257Z 05005KT 09/M08 A3032 RMK A01 T00911078  RH  029%=      5-min Rain = 0
KAM2 092258Z 06005KT 09/M08 A3032 RMK A01 T00911077  RH  030%=      5-min Rain = 0
KAM2 092259Z 06005KT 09/M08 A3032 RMK A01 T00901078  RH  030%=      5-min Rain = 0
KAM2 092300Z 05004KT 09/M08 A3032 RMK A01 T00901078  RH  030%=      5-min Rain = 0
KAM2 092301Z 05004KT 09/M08 A3032 RMK A01 T00901077  RH  030%=      5-min Rain = 0
KAM2 092302Z 05004KT 09/M08 A3032 RMK A01 T00891077  RH  030%=      5-min Rain = 0
KAM2 092303Z 06004KT 09/M08 A3032 RMK A01 T00881077  RH  030%=      5-min Rain = 0
KAM2 092304Z 06005KT 09/M08 A3032 RMK A01 T00881077  RH  030%=      5-min Rain = 0
KAM2 092305Z 06005KT 09/M08 A3032 RMK A01 T00871078  RH  030%=      5-min Rain = 0
KAM2 092306Z 06005KT 09/M08 A3032 RMK A01 T00861078  RH  030%=      5-min Rain = 0
KAM2 092307Z 06005KT 09/M08 A3032 RMK A01 T00861078  RH  031%=      5-min Rain = 0
KAM2 092308Z 05005KT 09/M08 A3032 RMK A01 T00851078  RH  031%=      5-min Rain = 0
KAM2 092309Z 05004KT 08/M08 A3032 RMK A01 T00841078  RH  031%=      5-min Rain = 0
KAM2 092310Z 05005KT 08/M08 A3032 RMK A01 T00841077  RH  031%=      5-min Rain = 0
KAM2 092311Z 05004KT 08/M08 A3032 RMK A01 T00831078  RH  031%=      5-min Rain = 0
KAM2 092312Z 05005KT 08/M08 A3032 RMK A01 T00821077  RH  031%=      5-min Rain = 0
KAM2 092313Z 05005KT 08/M08 A3032 RMK A01 T00821077  RH  032%=      5-min Rain = 0
KAM2 092314Z 05004KT 08/M08 A3032 RMK A01 T00811077  RH  032%=      5-min Rain = 0
KAM2 092315Z 05004KT 08/M08 A3032 RMK A01 T00801077  RH  032%=      5-min Rain = 0
KAM2 092316Z 05004KT 08/M08 A3032 RMK A01 T00801077  RH  032%=      5-min Rain = 0
KAM2 092317Z 05004KT 08/M08 A3032 RMK A01 T00791077  RH  032%=      5-min Rain = 0
KAM2 092318Z 05004KT 08/M08 A3032 RMK A01 T00781077  RH  032%=      5-min Rain = 0
KAM2 092319Z 05004KT 08/M08 A3032 RMK A01 T00781077  RH  033%=      5-min Rain = 0
KAM2 092320Z 05004KT 08/M08 A3032 RMK A01 T00771076  RH  033%=      5-min Rain = 0
KAM2 092321Z 05004KT 08/M08 A3032 RMK A01 T00761077  RH  033%=      5-min Rain = 0
KAM2 092322Z 05004KT 08/M08 A3032 RMK A01 T00761077  RH  033%=      5-min Rain = 0
KAM2 092323Z 05004KT 08/M08 A3032 RMK A01 T00751076  RH  033%=      5-min Rain = 0
KAM2 092324Z 05004KT 07/M08 A3032 RMK A01 T00741077  RH  033%=      5-min Rain = 0
KAM2 092325Z 05005KT 07/M08 A3032 RMK A01 T00731077  RH  034%=      5-min Rain = 0
KAM2 092326Z 05005KT 07/M08 A3032 RMK A01 T00721077  RH  034%=      5-min Rain = 0
KAM2 092327Z 05005KT 07/M08 A3032 RMK A01 T00711077  RH  034%=      5-min Rain = 0
KAM2 092328Z 05004KT 07/M08 A3032 RMK A01 T00701077  RH  034%=      5-min Rain = 0
KAM2 092329Z 05005KT 07/M08 A3032 RMK A01 T00691077  RH  034%=      5-min Rain = 0
KAM2 092330Z 05004KT 07/M08 A3032 RMK A01 T00681077  RH  035%=      5-min Rain = 0
KAM2 092331Z 05004KT 07/M08 A3032 RMK A01 T00671078  RH  035%=      5-min Rain = 0
KAM2 092332Z 05004KT 07/M08 A3032 RMK A01 T00651078  RH  035%=      5-min Rain = 0
KAM2 092333Z 05005KT 06/M08 A3032 RMK A01 T00641078  RH  035%=      5-min Rain = 0
KAM2 092334Z 04005KT 06/M08 A3032 RMK A01 T00631078  RH  036%=      5-min Rain = 0
KAM2 092335Z 05005KT 06/M08 A3032 RMK A01 T00621077  RH  036%=      5-min Rain = 0
KAM2 092336Z 05004KT 06/M08 A3032 RMK A01 T00611078  RH  036%=      5-min Rain = 0
KAM2 092337Z 05004KT 06/M08 A3032 RMK A01 T00601078  RH  036%=      5-min Rain = 0
KAM2 092338Z 05004KT 06/M08 A3032 RMK A01 T00591078  RH  037%=      5-min Rain = 0
KAM2 092339Z 05005KT 06/M08 A3032 RMK A01 T00571079  RH  037%=      5-min Rain = 0
KAM2 092340Z 05005KT 06/M08 A3033 RMK A01 T00551079  RH  037%=      5-min Rain = 0
KAM2 092341Z 05005KT 05/M08 A3033 RMK A01 T00531080  RH  038%=      5-min Rain = 0
KAM2 092342Z 04005KT 05/M08 A3033 RMK A01 T00501080  RH  038%=      5-min Rain = 0
KAM2 092343Z 04005KT 05/M08 A3033 RMK A01 T00471080  RH  039%=      5-min Rain = 0
KAM2 092344Z 04005KT 05/M08 A3033 RMK A01 T00451080  RH  040%=      5-min Rain = 0
KAM2 092345Z 04005KT 04/M08 A3033 RMK A01 T00431080  RH  040%=      5-min Rain = 0
KAM2 092346Z 04005KT 04/M08 A3033 RMK A01 T00411080  RH  041%=      5-min Rain = 0
KAM2 092347Z 05005KT 04/M08 A3033 RMK A01 T00391081  RH  041%=      5-min Rain = 0
KAM2 092348Z 05004KT 04/M08 A3033 RMK A01 T00371081  RH  042%=      5-min Rain = 0
KAM2 092349Z 05004KT 04/M08 A3033 RMK A01 T00351081  RH  042%=      5-min Rain = 0
KAM2 092350Z 05004KT 03/M08 A3033 RMK A01 T00341080  RH  043%=      5-min Rain = 0
KAM2 092351Z 05004KT 03/M08 A3033 RMK A01 T00341079  RH  043%=      5-min Rain = 0
KAM2 092352Z 04003KT 04/M08 A3033 RMK A01 T00371079  RH  043%=      5-min Rain = 0
KAM2 092353Z 04003KT 04/M08 A3033 RMK A01 T00381079  RH  042%=      5-min Rain = 0
KAM2 092354Z 03003KT 04/M08 A3033 RMK A01 T00401079  RH  041%=      5-min Rain = 0
KAM2 092355Z 01002KT 04/M08 A3033 RMK A01 T00411080  RH  041%=      5-min Rain = 0
KAM2 092356Z 36003KT 04/M08 A3033 RMK A01 T00421079  RH  041%=      5-min Rain = 0
KAM2 092357Z 00003KT 04/M08 A3033 RMK A01 T00411081  RH  041%=      5-min Rain = 0
KAM2 092358Z 00004KT 04/M08 A3033 RMK A01 T00391083  RH  041%=      5-min Rain = 0
KAM2 092359Z 01004KT 04/M08 A3033 RMK A01 T00381081  RH  041%=      5-min Rain = 0
KAM2 100000Z 01004KT 04/M08 A3033 RMK A01 T00401081  RH  041%=      5-min Rain = 0
KAM2 100001Z 01004KT 04/M08 A3034 RMK A01 T00401081  RH  041%=      5-min Rain = 0
KAM2 100002Z 02004KT 04/M08 A3034 RMK A01 T00361084  RH  041%=      5-min Rain = 0
KAM2 100003Z 03004KT 03/M08 A3034 RMK A01 T00341082  RH  042%=      5-min Rain = 0
KAM2 100004Z 03004KT 04/M08 A3034 RMK A01 T00351081  RH  042%=      5-min Rain = 0
KAM2 100005Z 03004KT 04/M08 A3034 RMK A01 T00351081  RH  042%=      5-min Rain = 0
KAM2 100006Z 03003KT 04/M08 A3034 RMK A01 T00351081  RH  042%=      5-min Rain = 0
KAM2 100007Z 03003KT 03/M08 A3034 RMK A01 T00341081  RH  043%=      5-min Rain = 0
KAM2 100008Z 03002KT 03/M08 A3034 RMK A01 T00341081  RH  043%=      5-min Rain = 0
KAM2 100009Z 04003KT 03/M08 A3034 RMK A01 T00331082  RH  043%=      5-min Rain = 0
KAM2 100010Z 04003KT 03/M08 A3034 RMK A01 T00331081  RH  043%=      5-min Rain = 0
KAM2 100011Z 04003KT 03/M08 A3034 RMK A01 T00331081  RH  043%=      5-min Rain = 0
KAM2 100012Z 04004KT 03/M08 A3034 RMK A01 T00331081  RH  043%=      5-min Rain = 0
KAM2 100013Z 04005KT 03/M08 A3034 RMK A01 T00331081  RH  043%=      5-min Rain = 0
KAM2 100014Z 04005KT 03/M08 A3034 RMK A01 T00321081  RH  043%=      5-min Rain = 0
KAM2 100015Z 04006KT 03/M08 A3034 RMK A01 T00321082  RH  043%=      5-min Rain = 0
KAM2 100016Z 03005KT 03/M08 A3034 RMK A01 T00311082  RH  043%=      5-min Rain = 0
KAM2 100017Z 04005KT 03/M08 A3034 RMK A01 T00301082  RH  044%=      5-min Rain = 0
KAM2 100018Z 04004KT 03/M08 A3034 RMK A01 T00301081  RH  044%=      5-min Rain = 0
KAM2 100019Z 04004KT 03/M08 A3034 RMK A01 T00301081  RH  044%=      5-min Rain = 0
KAM2 100020Z 04004KT 03/M08 A3034 RMK A01 T00301081  RH  044%=      5-min Rain = 0
KAM2 100021Z 05005KT 03/M08 A3034 RMK A01 T00301081  RH  044%=      5-min Rain = 0
KAM2 100022Z 05005KT 03/M08 A3034 RMK A01 T00301081  RH  044%=      5-min Rain = 0
KAM2 100023Z 05005KT 03/M08 A3034 RMK A01 T00301080  RH  044%=      5-min Rain = 0
KAM2 100024Z 05005KT 03/M08 A3034 RMK A01 T00301080  RH  044%=      5-min Rain = 0
KAM2 100025Z 05005KT 03/M08 A3034 RMK A01 T00311079  RH  044%=      5-min Rain = 0
KAM2 100026Z 05005KT 03/M08 A3034 RMK A01 T00311079  RH  044%=      5-min Rain = 0
KAM2 100027Z 05005KT 03/M08 A3034 RMK A01 T00321078  RH  044%=      5-min Rain = 0
KAM2 100028Z 05005KT 03/M08 A3034 RMK A01 T00321078  RH  044%=      5-min Rain = 0
KAM2 100029Z 05005KT 03/M08 A3034 RMK A01 T00321078  RH  044%=      5-min Rain = 0
KAM2 100030Z 05005KT 03/M08 A3034 RMK A01 T00321078  RH  044%=      5-min Rain = 0
KAM2 100031Z 04005KT 03/M08 A3034 RMK A01 T00311079  RH  044%=      5-min Rain = 0
KAM2 100032Z 04004KT 03/M08 A3034 RMK A01 T00311079  RH  044%=      5-min Rain = 0
KAM2 100033Z 03004KT 03/M08 A3034 RMK A01 T00281081  RH  044%=      5-min Rain = 0
KAM2 100034Z 02003KT 03/M08 A3035 RMK A01 T00261082  RH  045%=      5-min Rain = 0
KAM2 100035Z 00002KT 03/M08 A3035 RMK A01 T00261081  RH  045%=      5-min Rain = 0
KAM2 100036Z 35002KT 03/M08 A3035 RMK A01 T00251080  RH  046%=      5-min Rain = 0
KAM2 100037Z 35003KT 02/M08 A3035 RMK A01 T00241081  RH  046%=      5-min Rain = 0
KAM2 100038Z 35004KT 03/M08 A3035 RMK A01 T00251079  RH  046%=      5-min Rain = 0
KAM2 100039Z 34003KT 03/M08 A3035 RMK A01 T00261078  RH  046%=      5-min Rain = 0
KAM2 100040Z 35003KT 03/M08 A3035 RMK A01 T00281078  RH  046%=      5-min Rain = 0
KAM2 100041Z 36002KT 03/M08 A3035 RMK A01 T00281079  RH  045%=      5-min Rain = 0
KAM2 100042Z 00002KT 03/M08 A3035 RMK A01 T00281079  RH  045%=      5-min Rain = 0
KAM2 100043Z 02002KT 03/M08 A3035 RMK A01 T00281079  RH  045%=      5-min Rain = 0
KAM2 100044Z 03002KT 03/M08 A3035 RMK A01 T00281079  RH  045%=      5-min Rain = 0
KAM2 100045Z 03002KT 03/M08 A3035 RMK A01 T00281079  RH  045%=      5-min Rain = 0
KAM2 100046Z 03002KT 03/M08 A3035 RMK A01 T00281078  RH  045%=      5-min Rain = 0
KAM2 100047Z 04002KT 03/M08 A3035 RMK A01 T00281078  RH  046%=      5-min Rain = 0
KAM2 100048Z 04002KT 03/M08 A3035 RMK A01 T00271078  RH  046%=      5-min Rain = 0
KAM2 100049Z 04003KT 03/M08 A3035 RMK A01 T00261078  RH  046%=      5-min Rain = 0
KAM2 100050Z 04003KT 03/M08 A3035 RMK A01 T00251078  RH  046%=      5-min Rain = 0
KAM2 100051Z 04002KT 03/M08 A3035 RMK A01 T00251078  RH  046%=      5-min Rain = 0
KAM2 100052Z 04002KT 03/M08 A3036 RMK A01 T00261077  RH  047%=      5-min Rain = 0
KAM2 100053Z 04002KT 03/M08 A3036 RMK A01 T00271077  RH  046%=      5-min Rain = 0
KAM2 100054Z 04001KT 03/M08 A3036 RMK A01 T00271077  RH  046%=      5-min Rain = 0
KAM2 100055Z 04001KT 03/M08 A3036 RMK A01 T00261078  RH  046%=      5-min Rain = 0
KAM2 100056Z 05001KT 03/M08 A3036 RMK A01 T00251078  RH  047%=      5-min Rain = 0
KAM2 100057Z 05001KT 02/M08 A3036 RMK A01 T00241078  RH  047%=      5-min Rain = 0
KAM2 100058Z 05001KT 02/M08 A3036 RMK A01 T00221079  RH  047%=      5-min Rain = 0
KAM2 100059Z 06001KT 02/M08 A3036 RMK A01 T00211079  RH  048%=      5-min Rain = 0
KAM2 100100Z 07001KT 02/M08 A3035 RMK A01 T00201079  RH  048%=      5-min Rain = 0
KAM2 100101Z 08002KT 02/M08 A3035 RMK A01 T00191078  RH  048%=      5-min Rain = 0
KAM2 100102Z 08002KT 02/M08 A3035 RMK A01 T00171079  RH  049%=      5-min Rain = 0
KAM2 100103Z 09002KT 02/M08 A3035 RMK A01 T00151080  RH  049%=      5-min Rain = 0
KAM2 100104Z 10002KT 02/M08 A3035 RMK A01 T00151079  RH  050%=      5-min Rain = 0
KAM2 100105Z 11001KT 02/M08 A3035 RMK A01 T00151078  RH  050%=      5-min Rain = 0
KAM2 100106Z 13001KT 01/M08 A3035 RMK A01 T00111079  RH  051%=      5-min Rain = 0
KAM2 100107Z 13001KT 01/M08 A3035 RMK A01 T00081081  RH  052%=      5-min Rain = 0
KAM2 100108Z 14001KT 01/M08 A3035 RMK A01 T00061080  RH  052%=      5-min Rain = 0
KAM2 100109Z 15001KT 01/M08 A3035 RMK A01 T00061079  RH  053%=      5-min Rain = 0
KAM2 100110Z 15002KT 01/M08 A3035 RMK A01 T00081078  RH  053%=      5-min Rain = 0
KAM2 100111Z 18002KT 01/M08 A3035 RMK A01 T00091077  RH  053%=      5-min Rain = 0
KAM2 100112Z 18002KT 01/M08 A3035 RMK A01 T00121076  RH  052%=      5-min Rain = 0
KAM2 100113Z 19003KT 01/M08 A3035 RMK A01 T00111078  RH  051%=      5-min Rain = 0
KAM2 100114Z 19003KT 01/M08 A3035 RMK A01 T00091079  RH  052%=      5-min Rain = 0
KAM2 100115Z 19003KT 01/M08 A3035 RMK A01 T00081078  RH  052%=      5-min Rain = 0
KAM2 100116Z 18003KT 01/M08 A3035 RMK A01 T00061078  RH  053%=      5-min Rain = 0
KAM2 100117Z 17003KT 00/M08 A3035 RMK A01 T00041078  RH  054%=      5-min Rain = 0
KAM2 100118Z 18003KT 00/M08 A3035 RMK A01 T00021078  RH  055%=      5-min Rain = 0
KAM2 100119Z 18003KT 00/M08 A3035 RMK A01 T00011077  RH  056%=      5-min Rain = 0
KAM2 100120Z 16003KT 00/M08 A3035 RMK A01 T00011076  RH  056%=      5-min Rain = 0
KAM2 100121Z 17003KT 00/M08 A3035 RMK A01 T00011075  RH  056%=      5-min Rain = 0
KAM2 100122Z 16003KT 00/M08 A3035 RMK A01 T00021075  RH  056%=      5-min Rain = 0
KAM2 100123Z 16003KT 00/M08 A3035 RMK A01 T00021075  RH  056%=      5-min Rain = 0
KAM2 100124Z 17003KT 00/M08 A3035 RMK A01 T00021075  RH  056%=      5-min Rain = 0
KAM2 100125Z 17003KT 00/M07 A3035 RMK A01 T00031074  RH  056%=      5-min Rain = 0
KAM2 100126Z 17002KT 00/M07 A3035 RMK A01 T00041073  RH  056%=      5-min Rain = 0
KAM2 100127Z 17003KT 01/M07 A3035 RMK A01 T00051073  RH  056%=      5-min Rain = 0
KAM2 100128Z 18003KT 01/M07 A3035 RMK A01 T00051074  RH  055%=      5-min Rain = 0
KAM2 100129Z 18003KT 01/M07 A3035 RMK A01 T00061073  RH  055%=      5-min Rain = 0
KAM2 100130Z 17002KT 01/M07 A3035 RMK A01 T00061072  RH  056%=      5-min Rain = 0
KAM2 100131Z 18002KT 01/M07 A3035 RMK A01 T00061072  RH  056%=      5-min Rain = 0
KAM2 100132Z 17001KT 01/M07 A3035 RMK A01 T00071072  RH  056%=      5-min Rain = 0
KAM2 100133Z 03000KT 01/M07 A3035 RMK A01 T00091073  RH  055%=      5-min Rain = 0
KAM2 100134Z 03000KT 01/M07 A3036 RMK A01 T00111073  RH  053%=      5-min Rain = 0
KAM2 100135Z 00000KT 01/M07 A3036 RMK A01 T00141073  RH  053%=      5-min Rain = 0
KAM2 100136Z 07000KT 02/M07 A3036 RMK A01 T00151073  RH  052%=      5-min Rain = 0
KAM2 100137Z 10000KT 02/M07 A3035 RMK A01 T00151074  RH  052%=      5-min Rain = 0
KAM2 100138Z 12000KT 02/M07 A3035 RMK A01 T00151073  RH  052%=      5-min Rain = 0
KAM2 100139Z 14000KT 01/M07 A3035 RMK A01 T00131073  RH  053%=      5-min Rain = 0
KAM2 100140Z 16001KT 01/M07 A3035 RMK A01 T00121073  RH  053%=      5-min Rain = 0
KAM2 100141Z 15001KT 01/M07 A3035 RMK A01 T00131073  RH  053%=      5-min Rain = 0
KAM2 100142Z 15001KT 01/M07 A3035 RMK A01 T00131072  RH  053%=      5-min Rain = 0
KAM2 100143Z 17002KT 01/M07 A3035 RMK A01 T00121072  RH  054%=      5-min Rain = 0
KAM2 100144Z 17002KT 01/M07 A3035 RMK A01 T00101072  RH  054%=      5-min Rain = 0
KAM2 100145Z 16002KT 01/M07 A3035 RMK A01 T00091072  RH  054%=      5-min Rain = 0
KAM2 100146Z 16002KT 01/M07 A3035 RMK A01 T00091072  RH  055%=      5-min Rain = 0
KAM2 100147Z 16002KT 01/M07 A3035 RMK A01 T00081073  RH  055%=      5-min Rain = 0
KAM2 100148Z 17003KT 01/M07 A3035 RMK A01 T00071073  RH  055%=      5-min Rain = 0
KAM2 100149Z 18003KT 01/M07 A3035 RMK A01 T00051073  RH  056%=      5-min Rain = 0
KAM2 100150Z 19003KT 00/M07 A3035 RMK A01 T00031073  RH  057%=      5-min Rain = 0
KAM2 100151Z 19003KT 00/M07 A3035 RMK A01 T00021073  RH  057%=      5-min Rain = 0
KAM2 100152Z 19002KT 00/M07 A3036 RMK A01 T00021072  RH  057%=      5-min Rain = 0
KAM2 100153Z 20001KT 00/M07 A3036 RMK A01 T00031072  RH  057%=      5-min Rain = 0
KAM2 100154Z 20001KT 01/M07 A3036 RMK A01 T00051072  RH  056%=      5-min Rain = 0
KAM2 100155Z 21001KT 01/M07 A3036 RMK A01 T00061072  RH  056%=      5-min Rain = 0
KAM2 100156Z 26001KT 01/M07 A3036 RMK A01 T00051073  RH  056%=      5-min Rain = 0
KAM2 100157Z 26001KT 00/M07 A3036 RMK A01 T00021074  RH  056%=      5-min Rain = 0
KAM2 100158Z 23001KT M00/M07 A3036 RMK A01 T10011074  RH  058%=      5-min Rain = 0
KAM2 100159Z 22001KT M00/M07 A3036 RMK A01 T10021074  RH  058%=      5-min Rain = 0
KAM2 100200Z 21001KT M00/M07 A3036 RMK A01 T10031073  RH  059%=      5-min Rain = 0
KAM2 100201Z 22001KT M00/M07 A3036 RMK A01 T10031073  RH  059%=      5-min Rain = 0
KAM2 100202Z 23000KT M00/M07 A3036 RMK A01 T10031072  RH  059%=      5-min Rain = 0
KAM2 100203Z 00000KT M00/M07 A3036 RMK A01 T10031072  RH  059%=      5-min Rain = 0
KAM2 100204Z 21001KT M00/M07 A3036 RMK A01 T10031072  RH  059%=      5-min Rain = 0
KAM2 100205Z 21002KT M00/M07 A3036 RMK A01 T10021072  RH  059%=      5-min Rain = 0
KAM2 100206Z 21001KT M00/M07 A3036 RMK A01 T10021071  RH  059%=      5-min Rain = 0
KAM2 100207Z 21001KT M00/M07 A3036 RMK A01 T10021072  RH  059%=      5-min Rain = 0
KAM2 100208Z 21001KT M00/M07 A3036 RMK A01 T10021071  RH  060%=      5-min Rain = 0
KAM2 100209Z 19001KT M00/M07 A3036 RMK A01 T10021071  RH  060%=      5-min Rain = 0
KAM2 100210Z 20001KT M00/M07 A3036 RMK A01 T10031071  RH  060%=      5-min Rain = 0
KAM2 100211Z 18001KT M00/M07 A3036 RMK A01 T10031070  RH  060%=      5-min Rain = 0
KAM2 100212Z 17001KT M00/M07 A3036 RMK A01 T10031070  RH  061%=      5-min Rain = 0
KAM2 100213Z 17002KT M00/M07 A3036 RMK A01 T10031069  RH  061%=      5-min Rain = 0
KAM2 100214Z 17002KT M00/M07 A3036 RMK A01 T10041070  RH  061%=      5-min Rain = 0
KAM2 100215Z 18002KT M01/M07 A3036 RMK A01 T10061070  RH  062%=      5-min Rain = 0
KAM2 100216Z 18002KT M01/M07 A3036 RMK A01 T10071070  RH  062%=      5-min Rain = 0
KAM2 100217Z 19001KT M01/M07 A3036 RMK A01 T10081070  RH  063%=      5-min Rain = 0
KAM2 100218Z 21001KT M01/M07 A3037 RMK A01 T10081070  RH  063%=      5-min Rain = 0
KAM2 100219Z 22002KT M01/M07 A3037 RMK A01 T10081070  RH  063%=      5-min Rain = 0
KAM2 100220Z 22002KT M01/M07 A3037 RMK A01 T10081070  RH  063%=      5-min Rain = 0
KAM2 100221Z 22002KT M01/M07 A3037 RMK A01 T10081070  RH  063%=      5-min Rain = 0
KAM2 100222Z 21002KT M01/M07 A3037 RMK A01 T10081071  RH  062%=      5-min Rain = 0
KAM2 100223Z 20002KT M01/M07 A3037 RMK A01 T10081071  RH  062%=      5-min Rain = 0
KAM2 100224Z 19001KT M01/M07 A3037 RMK A01 T10081071  RH  062%=      5-min Rain = 0
KAM2 100225Z 18001KT M01/M07 A3037 RMK A01 T10071070  RH  062%=      5-min Rain = 0
KAM2 100226Z 18001KT M01/M07 A3037 RMK A01 T10071069  RH  063%=      5-min Rain = 0
KAM2 100227Z 17001KT M01/M07 A3037 RMK A01 T10061069  RH  062%=      5-min Rain = 0
KAM2 100228Z 16001KT M01/M07 A3037 RMK A01 T10051069  RH  062%=      5-min Rain = 0
KAM2 100229Z 16002KT M01/M07 A3037 RMK A01 T10051069  RH  062%=      5-min Rain = 0
KAM2 100230Z 16002KT M01/M07 A3037 RMK A01 T10051069  RH  062%=      5-min Rain = 0
KAM2 100231Z 17003KT M01/M07 A3037 RMK A01 T10051070  RH  061%=      5-min Rain = 0
KAM2 100232Z 18003KT M00/M07 A3037 RMK A01 T10041070  RH  061%=      5-min Rain = 0
KAM2 100233Z 18003KT M01/M07 A3037 RMK A01 T10051069  RH  062%=      5-min Rain = 0
KAM2 100234Z 18004KT M01/M07 A3037 RMK A01 T10061070  RH  062%=      5-min Rain = 0
KAM2 100235Z 18004KT M01/M07 A3037 RMK A01 T10071070  RH  062%=      5-min Rain = 0
KAM2 100236Z 18003KT M01/M07 A3037 RMK A01 T10081070  RH  063%=      5-min Rain = 0
KAM2 100237Z 18003KT M01/M07 A3037 RMK A01 T10081070  RH  063%=      5-min Rain = 0
KAM2 100238Z 18003KT M01/M07 A3037 RMK A01 T10091070  RH  063%=      5-min Rain = 0
KAM2 100239Z 18003KT M01/M07 A3037 RMK A01 T10091071  RH  063%=      5-min Rain = 0
KAM2 100240Z 18004KT M01/M07 A3037 RMK A01 T10091072  RH  063%=      5-min Rain = 0
KAM2 100241Z 18003KT M01/M07 A3037 RMK A01 T10091072  RH  063%=      5-min Rain = 0
KAM2 100242Z 17003KT M01/M07 A3037 RMK A01 T10091072  RH  063%=      5-min Rain = 0
KAM2 100243Z 17003KT M01/M07 A3037 RMK A01 T10101072  RH  063%=      5-min Rain = 0
KAM2 100244Z 17003KT M01/M07 A3037 RMK A01 T10101072  RH  063%=      5-min Rain = 0
KAM2 100245Z 17003KT M01/M07 A3037 RMK A01 T10111071  RH  063%=      5-min Rain = 0
KAM2 100246Z 16003KT M01/M07 A3037 RMK A01 T10111071  RH  064%=      5-min Rain = 0
KAM2 100247Z 16002KT M01/M07 A3037 RMK A01 T10111071  RH  064%=      5-min Rain = 0
KAM2 100248Z 15002KT M01/M07 A3037 RMK A01 T10111072  RH  063%=      5-min Rain = 0
KAM2 100249Z 15002KT M01/M07 A3037 RMK A01 T10111072  RH  063%=      5-min Rain = 0
KAM2 100250Z 16002KT M01/M07 A3037 RMK A01 T10111072  RH  063%=      5-min Rain = 0
KAM2 100251Z 16002KT M01/M07 A3037 RMK A01 T10121072  RH  064%=      5-min Rain = 0
KAM2 100252Z 17002KT M01/M07 A3037 RMK A01 T10131073  RH  064%=      5-min Rain = 0
KAM2 100253Z 18002KT M02/M07 A3037 RMK A01 T10151073  RH  064%=      5-min Rain = 0
KAM2 100254Z 18002KT M02/M07 A3037 RMK A01 T10151073  RH  064%=      5-min Rain = 0
KAM2 100255Z 18002KT M02/M07 A3037 RMK A01 T10151074  RH  064%=      5-min Rain = 0
KAM2 100256Z 18003KT M02/M07 A3037 RMK A01 T10151074  RH  064%=      5-min Rain = 0
KAM2 100257Z 17003KT M01/M08 A3037 RMK A01 T10141075  RH  064%=      5-min Rain = 0
KAM2 100258Z 17003KT M01/M08 A3037 RMK A01 T10141075  RH  063%=      5-min Rain = 0
KAM2 100259Z 18003KT M01/M08 A3037 RMK A01 T10141075  RH  063%=      5-min Rain = 0
KAM2 100300Z 17003KT M02/M08 A3037 RMK A01 T10151075  RH  063%=      5-min Rain = 0
KAM2 100301Z 18003KT M02/M08 A3037 RMK A01 T10161076  RH  064%=      5-min Rain = 0
KAM2 100302Z 18004KT M02/M08 A3037 RMK A01 T10161075  RH  064%=      5-min Rain = 0
KAM2 100303Z 18004KT M02/M08 A3036 RMK A01 T10171076  RH  064%=      5-min Rain = 0
KAM2 100304Z 18004KT M02/M08 A3036 RMK A01 T10181076  RH  064%=      5-min Rain = 0
KAM2 100305Z 18005KT M02/M08 A3036 RMK A01 T10191077  RH  065%=      5-min Rain = 0
KAM2 100306Z 19005KT M02/M08 A3036 RMK A01 T10201077  RH  065%=      5-min Rain = 0
KAM2 100307Z 19005KT M02/M08 A3036 RMK A01 T10221078  RH  065%=      5-min Rain = 0
KAM2 100308Z 19005KT M02/M08 A3036 RMK A01 T10241079  RH  066%=      5-min Rain = 0
KAM2 100309Z 19005KT M03/M08 A3037 RMK A01 T10251079  RH  067%=      5-min Rain = 0
KAM2 100310Z 19004KT M03/M08 A3037 RMK A01 T10261079  RH  067%=      5-min Rain = 0
KAM2 100311Z 19004KT M03/M08 A3037 RMK A01 T10271078  RH  068%=      5-min Rain = 0
KAM2 100312Z 19004KT M03/M08 A3037 RMK A01 T10271078  RH  068%=      5-min Rain = 0
KAM2 100313Z 19003KT M03/M08 A3037 RMK A01 T10261077  RH  068%=      5-min Rain = 0
KAM2 100314Z 19003KT M03/M08 A3037 RMK A01 T10261077  RH  068%=      5-min Rain = 0
KAM2 100315Z 19002KT M03/M08 A3037 RMK A01 T10251076  RH  068%=      5-min Rain = 0
KAM2 100316Z 20002KT M02/M08 A3037 RMK A01 T10231076  RH  067%=      5-min Rain = 0
KAM2 100317Z 19002KT M02/M08 A3037 RMK A01 T10221075  RH  067%=      5-min Rain = 0
KAM2 100318Z 19002KT M02/M07 A3037 RMK A01 T10211074  RH  067%=      5-min Rain = 0
KAM2 100319Z 19002KT M02/M07 A3037 RMK A01 T10201074  RH  067%=      5-min Rain = 0
KAM2 100320Z 19002KT M02/M07 A3037 RMK A01 T10201074  RH  067%=      5-min Rain = 0
KAM2 100321Z 19002KT M02/M07 A3037 RMK A01 T10201074  RH  067%=      5-min Rain = 0
KAM2 100322Z 19002KT M02/M07 A3037 RMK A01 T10191073  RH  067%=      5-min Rain = 0
KAM2 100323Z 19003KT M02/M07 A3037 RMK A01 T10191074  RH  066%=      5-min Rain = 0
KAM2 100324Z 18003KT M02/M08 A3037 RMK A01 T10201075  RH  066%=      5-min Rain = 0
KAM2 100325Z 19003KT M02/M08 A3037 RMK A01 T10211076  RH  066%=      5-min Rain = 0
KAM2 100326Z 18003KT M02/M08 A3037 RMK A01 T10231077  RH  066%=      5-min Rain = 0
KAM2 100327Z 18003KT M02/M08 A3037 RMK A01 T10241077  RH  067%=      5-min Rain = 0
KAM2 100328Z 18003KT M02/M08 A3037 RMK A01 T10241076  RH  067%=      5-min Rain = 0
KAM2 100329Z 18003KT M03/M08 A3037 RMK A01 T10251077  RH  068%=      5-min Rain = 0
KAM2 100330Z 19003KT M03/M08 A3037 RMK A01 T10261078  RH  068%=      5-min Rain = 0
KAM2 100331Z 19003KT M03/M08 A3037 RMK A01 T10281078  RH  068%=      5-min Rain = 0
KAM2 100332Z 19004KT M03/M08 A3037 RMK A01 T10281078  RH  069%=      5-min Rain = 0
KAM2 100333Z 18004KT M03/M08 A3037 RMK A01 T10301078  RH  069%=      5-min Rain = 0
KAM2 100334Z 18004KT M03/M08 A3037 RMK A01 T10311079  RH  070%=      5-min Rain = 0
KAM2 100335Z 18004KT M03/M08 A3037 RMK A01 T10321079  RH  070%=      5-min Rain = 0
KAM2 100336Z 18004KT M03/M08 A3037 RMK A01 T10331080  RH  070%=      5-min Rain = 0
KAM2 100337Z 18003KT M03/M08 A3037 RMK A01 T10331079  RH  070%=      5-min Rain = 0
KAM2 100338Z 18004KT M03/M08 A3037 RMK A01 T10331078  RH  071%=      5-min Rain = 0
KAM2 100339Z 18004KT M03/M08 A3037 RMK A01 T10311078  RH  070%=      5-min Rain = 0
KAM2 100340Z 18004KT M03/M08 A3037 RMK A01 T10311078  RH  070%=      5-min Rain = 0
KAM2 100341Z 18004KT M03/M08 A3037 RMK A01 T10301077  RH  070%=      5-min Rain = 0
KAM2 100342Z 18004KT M03/M08 A3037 RMK A01 T10301078  RH  070%=      5-min Rain = 0
KAM2 100343Z 18003KT M03/M08 A3037 RMK A01 T10301078  RH  070%=      5-min Rain = 0
KAM2 100344Z 17003KT M03/M08 A3037 RMK A01 T10301077  RH  070%=      5-min Rain = 0
KAM2 100345Z 17003KT M03/M08 A3037 RMK A01 T10301077  RH  070%=      5-min Rain = 0
KAM2 100346Z 17003KT M03/M08 A3037 RMK A01 T10301078  RH  070%=      5-min Rain = 0
KAM2 100347Z 17004KT M03/M08 A3037 RMK A01 T10291077  RH  070%=      5-min Rain = 0
KAM2 100348Z 17004KT M03/M08 A3037 RMK A01 T10291078  RH  069%=      5-min Rain = 0
KAM2 100349Z 17004KT M03/M08 A3037 RMK A01 T10291077  RH  070%=      5-min Rain = 0
KAM2 100350Z 17004KT M03/M08 A3037 RMK A01 T10291077  RH  070%=      5-min Rain = 0
KAM2 100351Z 18004KT M03/M08 A3037 RMK A01 T10301078  RH  069%=      5-min Rain = 0
KAM2 100352Z 18004KT M03/M08 A3037 RMK A01 T10301078  RH  069%=      5-min Rain = 0
KAM2 100353Z 19004KT M03/M08 A3037 RMK A01 T10321079  RH  070%=      5-min Rain = 0
KAM2 100354Z 19004KT M03/M08 A3037 RMK A01 T10341081  RH  070%=      5-min Rain = 0
KAM2 100355Z 19004KT M04/M08 A3037 RMK A01 T10361082  RH  071%=      5-min Rain = 0
KAM2 100356Z 19004KT M04/M08 A3037 RMK A01 T10381082  RH  071%=      5-min Rain = 0
KAM2 100357Z 19004KT M04/M08 A3037 RMK A01 T10381082  RH  072%=      5-min Rain = 0
KAM2 100358Z 19004KT M04/M08 A3037 RMK A01 T10401082  RH  072%=      5-min Rain = 0
KAM2 100359Z 19004KT M04/M08 A3037 RMK A01 T10411082  RH  073%=      5-min Rain = 0
KAM2 100400Z 19004KT M04/M08 A3037 RMK A01 T10421083  RH  073%=      5-min Rain = 0
KAM2 100401Z 19004KT M04/M08 A3037 RMK A01 T10421083  RH  073%=      5-min Rain = 0
KAM2 100402Z 19004KT M04/M08 A3037 RMK A01 T10421082  RH  074%=      5-min Rain = 0
KAM2 100403Z 19004KT M04/M08 A3037 RMK A01 T10421082  RH  074%=      5-min Rain = 0
KAM2 100404Z 19004KT M04/M08 A3037 RMK A01 T10421082  RH  074%=      5-min Rain = 0
KAM2 100405Z 19004KT M04/M08 A3037 RMK A01 T10431082  RH  074%=      5-min Rain = 0
KAM2 100406Z 19004KT M04/M08 A3037 RMK A01 T10421081  RH  074%=      5-min Rain = 0
KAM2 100407Z 19004KT M04/M08 A3037 RMK A01 T10421081  RH  074%=      5-min Rain = 0
KAM2 100408Z 18004KT M04/M08 A3037 RMK A01 T10411082  RH  073%=      5-min Rain = 0
KAM2 100409Z 18005KT M04/M08 A3037 RMK A01 T10411082  RH  073%=      5-min Rain = 0
KAM2 100410Z 19005KT M04/M08 A3037 RMK A01 T10421082  RH  074%=      5-min Rain = 0
KAM2 100411Z 19005KT M04/M08 A3037 RMK A01 T10421082  RH  074%=      5-min Rain = 0
KAM2 100412Z 19005KT M04/M08 A3037 RMK A01 T10421082  RH  074%=      5-min Rain = 0
KAM2 100413Z 19005KT M04/M08 A3037 RMK A01 T10421082  RH  074%=      5-min Rain = 0
KAM2 100414Z 19005KT M04/M08 A3037 RMK A01 T10431081  RH  074%=      5-min Rain = 0
KAM2 100415Z 19005KT M04/M08 A3037 RMK A01 T10421081  RH  075%=      5-min Rain = 0
KAM2 100416Z 18005KT M04/M08 A3037 RMK A01 T10431081  RH  075%=      5-min Rain = 0
KAM2 100417Z 18005KT M04/M08 A3037 RMK A01 T10431081  RH  075%=      5-min Rain = 0
KAM2 100418Z 18005KT M04/M08 A3037 RMK A01 T10441081  RH  075%=      5-min Rain = 0
KAM2 100419Z 17004KT M04/M08 A3037 RMK A01 T10441082  RH  075%=      5-min Rain = 0
KAM2 100420Z 17004KT M04/M08 A3037 RMK A01 T10441082  RH  075%=      5-min Rain = 0
KAM2 100421Z 18004KT M04/M08 A3037 RMK A01 T10431082  RH  074%=      5-min Rain = 0
KAM2 100422Z 18004KT M04/M08 A3037 RMK A01 T10441083  RH  074%=      5-min Rain = 0
KAM2 100423Z 18004KT M04/M08 A3037 RMK A01 T10441084  RH  074%=      5-min Rain = 0
KAM2 100424Z 18004KT M05/M08 A3037 RMK A01 T10451083  RH  074%=      5-min Rain = 0
KAM2 100425Z 19004KT M05/M08 A3037 RMK A01 T10451083  RH  075%=      5-min Rain = 0
KAM2 100426Z 18005KT M05/M08 A3037 RMK A01 T10451084  RH  075%=      5-min Rain = 0
KAM2 100427Z 18005KT M05/M08 A3037 RMK A01 T10451083  RH  075%=      5-min Rain = 0
KAM2 100428Z 19005KT M05/M08 A3037 RMK A01 T10451083  RH  075%=      5-min Rain = 0
KAM2 100429Z 19005KT M05/M08 A3037 RMK A01 T10451082  RH  075%=      5-min Rain = 0
KAM2 100430Z 19005KT M05/M08 A3037 RMK A01 T10451082  RH  075%=      5-min Rain = 0
KAM2 100431Z 19005KT M05/M08 A3037 RMK A01 T10451082  RH  075%=      5-min Rain = 0
KAM2 100432Z 19005KT M05/M08 A3037 RMK A01 T10461083  RH  076%=      5-min Rain = 0
KAM2 100433Z 19005KT M05/M08 A3037 RMK A01 T10471083  RH  076%=      5-min Rain = 0
KAM2 100434Z 19005KT M05/M08 A3037 RMK A01 T10471083  RH  076%=      5-min Rain = 0
KAM2 100435Z 19004KT M05/M08 A3037 RMK A01 T10471083  RH  076%=      5-min Rain = 0
KAM2 100436Z 18004KT M05/M08 A3037 RMK A01 T10481084  RH  076%=      5-min Rain = 0
KAM2 100437Z 19004KT M05/M08 A3037 RMK A01 T10481084  RH  076%=      5-min Rain = 0
KAM2 100438Z 18004KT M05/M08 A3037 RMK A01 T10481083  RH  076%=      5-min Rain = 0
KAM2 100439Z 18004KT M05/M08 A3037 RMK A01 T10471083  RH  076%=      5-min Rain = 0
KAM2 100440Z 19004KT M05/M08 A3037 RMK A01 T10471083  RH  076%=      5-min Rain = 0
KAM2 100441Z 19004KT M05/M08 A3037 RMK A01 T10461082  RH  076%=      5-min Rain = 0
KAM2 100442Z 19004KT M05/M08 A3037 RMK A01 T10461083  RH  076%=      5-min Rain = 0
KAM2 100443Z 18004KT M05/M08 A3037 RMK A01 T10461082  RH  076%=      5-min Rain = 0
KAM2 100444Z 18004KT M05/M08 A3037 RMK A01 T10461082  RH  076%=      5-min Rain = 0
KAM2 100445Z 18004KT M05/M08 A3037 RMK A01 T10461082  RH  076%=      5-min Rain = 0
KAM2 100446Z 18004KT M05/M08 A3037 RMK A01 T10461082  RH  076%=      5-min Rain = 0
KAM2 100447Z 18004KT M05/M08 A3037 RMK A01 T10461082  RH  076%=      5-min Rain = 0
KAM2 100448Z 18005KT M05/M08 A3037 RMK A01 T10461081  RH  076%=      5-min Rain = 0
KAM2 100449Z 18005KT M05/M08 A3037 RMK A01 T10461082  RH  076%=      5-min Rain = 0
KAM2 100450Z 18005KT M05/M08 A3037 RMK A01 T10471082  RH  076%=      5-min Rain = 0
KAM2 100451Z 18005KT M05/M08 A3037 RMK A01 T10471082  RH  076%=      5-min Rain = 0
KAM2 100452Z 18005KT M05/M08 A3037 RMK A01 T10471083  RH  076%=      5-min Rain = 0
KAM2 100453Z 18005KT M05/M08 A3037 RMK A01 T10471083  RH  076%=      5-min Rain = 0
KAM2 100454Z 18005KT M05/M08 A3037 RMK A01 T10481084  RH  076%=      5-min Rain = 0
KAM2 100455Z 18004KT M05/M08 A3037 RMK A01 T10471084  RH  076%=      5-min Rain = 0
KAM2 100456Z 18004KT M05/M08 A3037 RMK A01 T10481084  RH  075%=      5-min Rain = 0
KAM2 100457Z 18004KT M05/M09 A3037 RMK A01 T10481085  RH  075%=      5-min Rain = 0
KAM2 100458Z 18004KT M05/M09 A3037 RMK A01 T10491085  RH  075%=      5-min Rain = 0
KAM2 100459Z 18004KT M05/M09 A3037 RMK A01 T10491085  RH  076%=      5-min Rain = 0
KAM2 100500Z 18004KT M05/M09 A3037 RMK A01 T10501086  RH  076%=      5-min Rain = 0
KAM2 100501Z 18004KT M05/M09 A3037 RMK A01 T10501085  RH  076%=      5-min Rain = 0
KAM2 100502Z 18004KT M05/M09 A3037 RMK A01 T10501085  RH  077%=      5-min Rain = 0
KAM2 100503Z 18004KT M05/M09 A3037 RMK A01 T10511085  RH  077%=      5-min Rain = 0
KAM2 100504Z 18004KT M05/M09 A3037 RMK A01 T10511086  RH  077%=      5-min Rain = 0
KAM2 100505Z 18004KT M05/M09 A3037 RMK A01 T10511086  RH  077%=      5-min Rain = 0
KAM2 100506Z 18004KT M05/M09 A3037 RMK A01 T10521086  RH  077%=      5-min Rain = 0
KAM2 100507Z 18004KT M05/M09 A3036 RMK A01 T10521086  RH  077%=      5-min Rain = 0
KAM2 100508Z 18004KT M05/M09 A3036 RMK A01 T10521086  RH  077%=      5-min Rain = 0
KAM2 100509Z 18004KT M05/M09 A3036 RMK A01 T10521086  RH  077%=      5-min Rain = 0
KAM2 100510Z 18004KT M05/M09 A3036 RMK A01 T10531086  RH  078%=      5-min Rain = 0
KAM2 100511Z 18004KT M05/M09 A3036 RMK A01 T10531086  RH  078%=      5-min Rain = 0
KAM2 100512Z 18004KT M05/M09 A3036 RMK A01 T10531086  RH  078%=      5-min Rain = 0
KAM2 100513Z 18004KT M05/M09 A3036 RMK A01 T10531086  RH  078%=      5-min Rain = 0
KAM2 100514Z 19004KT M05/M09 A3036 RMK A01 T10531086  RH  078%=      5-min Rain = 0
KAM2 100515Z 18005KT M05/M09 A3036 RMK A01 T10531086  RH  078%=      5-min Rain = 0
KAM2 100516Z 18005KT M05/M09 A3036 RMK A01 T10531085  RH  078%=      5-min Rain = 0
KAM2 100517Z 18004KT M05/M09 A3036 RMK A01 T10521085  RH  078%=      5-min Rain = 0
KAM2 100518Z 18004KT M05/M08 A3036 RMK A01 T10521084  RH  078%=      5-min Rain = 0
KAM2 100519Z 18005KT M05/M08 A3036 RMK A01 T10511084  RH  078%=      5-min Rain = 0
KAM2 100520Z 18004KT M05/M08 A3036 RMK A01 T10511084  RH  078%=      5-min Rain = 0
KAM2 100521Z 18004KT M05/M08 A3036 RMK A01 T10501083  RH  078%=      5-min Rain = 0
KAM2 100522Z 18005KT M05/M08 A3036 RMK A01 T10491083  RH  078%=      5-min Rain = 0
KAM2 100523Z 19005KT M05/M08 A3036 RMK A01 T10491083  RH  077%=      5-min Rain = 0
KAM2 100524Z 19005KT M05/M08 A3036 RMK A01 T10491084  RH  077%=      5-min Rain = 0
KAM2 100525Z 19005KT M05/M08 A3036 RMK A01 T10491084  RH  076%=      5-min Rain = 0
KAM2 100526Z 19004KT M05/M09 A3036 RMK A01 T10501085  RH  076%=      5-min Rain = 0
KAM2 100527Z 19004KT M05/M09 A3036 RMK A01 T10501085  RH  076%=      5-min Rain = 0
KAM2 100528Z 19004KT M05/M09 A3036 RMK A01 T10511085  RH  077%=      5-min Rain = 0
KAM2 100529Z 19004KT M05/M09 A3036 RMK A01 T10511085  RH  077%=      5-min Rain = 0
KAM2 100530Z 19004KT M05/M09 A3036 RMK A01 T10521085  RH  077%=      5-min Rain = 0
KAM2 100531Z 19004KT M05/M08 A3036 RMK A01 T10521084  RH  078%=      5-min Rain = 0
KAM2 100532Z 19005KT M05/M08 A3036 RMK A01 T10521084  RH  078%=      5-min Rain = 0
KAM2 100533Z 19005KT M05/M08 A3036 RMK A01 T10521084  RH  078%=      5-min Rain = 0
KAM2 100534Z 19004KT M05/M08 A3036 RMK A01 T10521084  RH  078%=      5-min Rain = 0
KAM2 100535Z 19004KT M05/M08 A3036 RMK A01 T10521084  RH  078%=      5-min Rain = 0
KAM2 100536Z 19004KT M05/M08 A3036 RMK A01 T10521084  RH  078%=      5-min Rain = 0
KAM2 100537Z 19004KT M05/M09 A3036 RMK A01 T10521085  RH  078%=      5-min Rain = 0
KAM2 100538Z 19004KT M05/M09 A3036 RMK A01 T10531085  RH  078%=      5-min Rain = 0
KAM2 100539Z 19004KT M05/M09 A3036 RMK A01 T10531086  RH  078%=      5-min Rain = 0
KAM2 100540Z 19004KT M05/M09 A3036 RMK A01 T10531085  RH  078%=      5-min Rain = 0
KAM2 100541Z 19004KT M05/M09 A3036 RMK A01 T10531085  RH  078%=      5-min Rain = 0
KAM2 100542Z 18005KT M05/M09 A3036 RMK A01 T10531085  RH  078%=      5-min Rain = 0
KAM2 100543Z 18004KT M05/M08 A3036 RMK A01 T10521084  RH  079%=      5-min Rain = 0
KAM2 100544Z 18004KT M05/M08 A3036 RMK A01 T10521084  RH  078%=      5-min Rain = 0
KAM2 100545Z 18004KT M05/M08 A3036 RMK A01 T10521084  RH  078%=      5-min Rain = 0
KAM2 100546Z 18004KT M05/M08 A3036 RMK A01 T10511084  RH  078%=      5-min Rain = 0
KAM2 100547Z 18004KT M05/M08 A3036 RMK A01 T10511084  RH  078%=      5-min Rain = 0
KAM2 100548Z 18004KT M05/M08 A3035 RMK A01 T10511084  RH  078%=      5-min Rain = 0
KAM2 100549Z 18004KT M05/M08 A3035 RMK A01 T10511084  RH  078%=      5-min Rain = 0
KAM2 100550Z 18004KT M05/M08 A3035 RMK A01 T10501084  RH  077%=      5-min Rain = 0
KAM2 100551Z 19005KT M05/M09 A3035 RMK A01 T10511085  RH  077%=      5-min Rain = 0
KAM2 100552Z 19005KT M05/M09 A3035 RMK A01 T10521086  RH  077%=      5-min Rain = 0
KAM2 100553Z 19005KT M05/M09 A3035 RMK A01 T10541087  RH  077%=      5-min Rain = 0
KAM2 100554Z 19005KT M06/M09 A3035 RMK A01 T10551088  RH  078%=      5-min Rain = 0
KAM2 100555Z 19004KT M06/M09 A3035 RMK A01 T10571088  RH  078%=      5-min Rain = 0
KAM2 100556Z 19005KT M06/M09 A3035 RMK A01 T10581088  RH  079%=      5-min Rain = 0
KAM2 100557Z 18005KT M06/M09 A3035 RMK A01 T10581087  RH  080%=      5-min Rain = 0
KAM2 100558Z 18005KT M06/M09 A3035 RMK A01 T10581086  RH  081%=      5-min Rain = 0
KAM2 100559Z 18006KT M06/M08 A3035 RMK A01 T10561084  RH  081%=      5-min Rain = 0

Page generated in 0.1531 seconds.